GFSGBSN_sfc_thetae_057.txt.gz
Theta_e
312 312 311 311 311 311 311 311 311 311 311 311 311 312 312 312 312 312 312 313 314 315 315 315 316 316 315 307 303 310 314 318 315 312 307 305 305 307 303 305 307 307 310 313 316 316 317
311 311 311 311 311 311 311 311 311 311 311 311 311 311 311 311 311 312 312 313 314 314 314 316 317 316 312 302 310 313 313 312 313 311 308 307 304 306 305 305 305 308 309 310 313 313 315
311 311 310 310 310 310 311 311 311 311 311 311 311 311 310 311 311 311 312 313 313 313 315 316 317 315 309 303 312 313 314 312 312 311 307 309 309 304 305 304 309 307 302 306 309 310 310
310 310 310 310 311 311 311 311 311 311 311 311 311 311 310 310 311 311 312 312 312 314 316 318 316 316 305 310 313 312 312 311 312 312 310 311 310 306 304 304 302 301 303 298 305 308 310
311 310 311 311 311 311 311 311 311 311 312 311 312 311 310 310 310 311 311 311 313 315 316 316 315 311 302 311 307 309 311 307 309 310 310 309 308 303 303 298 295 297 293 298 301 307 307
311 311 311 311 311 311 311 311 311 311 311 311 311 311 310 309 310 310 311 310 314 315 316 317 312 306 307 301 306 307 310 309 306 306 305 304 303 299 299 296 289 292 293 296 297 304 306
311 311 312 312 312 311 311 312 311 312 312 311 310 309 309 309 309 310 311 315 310 310 310 303 302 302 301 306 308 306 308 306 306 304 298 302 297 294 297 298 298 297 294 294 299 304 303
311 312 312 312 312 311 311 311 311 311 311 311 310 309 309 309 310 310 312 307 306 308 300 306 305 303 305 306 300 304 308 301 301 296 299 297 294 298 299 298 296 295 293 293 297 301 302
311 311 312 311 311 311 311 311 311 311 311 311 310 310 309 309 310 310 310 308 313 312 301 300 302 302 303 304 300 301 304 302 298 296 296 294 297 300 297 296 294 295 293 293 293 298 301
311 311 311 311 311 310 310 310 310 311 310 310 310 310 310 309 307 312 310 312 314 312 296 296 298 301 302 303 299 305 305 302 299 295 296 296 299 296 295 294 295 291 296 295 293 293 291
311 311 311 311 311 309 310 309 310 310 310 310 310 310 309 307 313 310 311 315 314 310 287 296 298 306 303 299 299 300 306 302 295 296 296 294 295 295 294 294 296 293 297 295 294 292 293
311 311 311 311 311 310 309 309 310 309 309 309 310 309 308 311 316 312 315 314 310 295 284 293 298 297 297 299 298 300 300 303 302 297 297 296 301 299 297 298 296 297 294 294 294 292 286
310 311 311 311 311 311 310 310 310 310 309 309 310 308 308 314 309 315 315 309 295 289 296 293 293 296 296 295 295 296 296 295 292 289 290 294 295 298 300 294 297 294 291 284 282 283 284
310 311 311 311 311 311 311 310 310 309 309 309 308 306 310 315 316 315 312 301 287 292 293 297 295 296 293 294 294 294 294 292 296 295 291 287 286 295 298 296 292 291 291 284 279 281 285
311 311 311 311 311 311 311 310 309 309 308 307 306 314 314 317 316 314 304 294 293 293 295 293 295 292 292 294 294 294 293 292 294 295 288 287 287 296 298 298 296 292 287 293 287 287 283
310 310 310 310 310 311 311 310 310 309 308 307 308 311 313 315 317 310 300 293 295 297 297 296 290 292 289 292 291 292 292 294 292 296 298 293 286 294 296 298 298 295 295 287 287 280 278
309 309 310 310 310 310 311 311 310 309 307 306 309 304 311 314 312 304 295 294 295 299 298 294 293 292 292 291 292 291 291 294 296 295 297 294 291 290 295 291 292 292 290 291 291 288 281
309 310 310 311 311 310 310 310 309 308 306 306 308 300 312 309 300 302 296 294 293 297 299 297 297 294 292 292 291 291 291 293 298 297 291 295 292 287 289 296 298 295 293 292 287 286 289
309 310 310 311 311 310 310 310 309 308 306 306 302 303 311 307 296 297 298 296 296 296 296 295 294 295 296 292 288 293 293 297 298 296 292 296 290 284 286 290 295 291 293 293 293 291 288
309 310 310 310 310 310 310 309 309 307 305 307 302 297 304 307 304 297 296 295 293 297 296 298 296 297 294 292 294 292 291 295 298 297 298 297 291 287 284 286 288 287 290 293 292 285 289
310 310 310 310 310 310 309 307 306 305 304 306 304 300 300 295 298 296 297 296 292 293 296 297 295 294 293 289 291 290 293 294 297 298 298 295 289 290 291 292 291 290 290 291 290 292 287
309 309 310 309 309 309 307 306 305 306 305 306 298 296 299 296 296 294 296 295 293 294 295 293 292 293 293 289 290 289 292 293 291 296 295 297 288 291 289 292 292 289 292 292 292 292 291
309 309 308 307 306 306 307 306 306 305 305 304 303 303 297 295 297 293 293 292 292 293 295 296 294 292 291 294 297 299 299 299 296 294 293 292 290 289 285 291 291 287 290 292 292 293 292
308 307 305 304 304 304 305 306 306 305 305 307 304 302 293 290 294 294 293 293 291 292 291 296 296 294 298 303 303 303 302 300 299 296 296 291 290 290 286 288 279 290 297 297 295 296 296
306 304 303 303 303 303 303 303 304 305 306 304 307 303 296 288 293 293 295 293 294 295 293 295 298 300 303 301 295 294 297 295 296 298 296 295 289 286 283 283 287 289 293 293 292 293 299
304 303 302 302 302 302 302 302 303 303 304 304 304 310 302 290 292 297 294 294 291 291 293 296 300 305 302 296 294 288 287 290 289 291 298 295 291 287 286 282 279 290 295 299 298 287 298
302 302 302 301 301 301 302 302 302 303 303 303 303 310 302 295 298 297 292 292 294 292 291 294 295 297 302 294 289 286 288 293 288 287 288 290 287 284 285 284 288 294 296 298 285 289 299
302 301 301 300 300 301 301 301 301 302 302 303 302 307 302 296 299 301 300 295 295 294 288 294 294 294 297 292 290 289 286 290 289 292 290 287 288 287 287 284 282 299 297 289 297 301 299
300 300 299 300 300 300 301 301 302 302 303 303 299 306 308 297 297 304 304 304 302 300 295 295 293 293 296 294 295 294 289 291 290 287 297 290 294 289 290 291 300 302 300 301 301 297 298

GFSGBSN_sfc_thetae_060.txt.gz
Theta_e
312 312 312 312 312 312 311 312 312 312 312 312 312 312 312 312 312 312 312 313 314 315 315 315 316 317 315 310 305 313 325 321 316 314 309 306 303 303 301 303 304 302 305 309 313 315 315
311 311 312 312 312 312 312 312 312 312 312 312 311 312 311 311 311 312 313 313 313 313 314 315 317 317 313 303 311 313 313 312 312 310 308 308 305 306 301 300 302 305 305 306 308 309 312
312 312 312 312 312 312 312 312 312 312 313 313 313 312 311 311 311 311 312 313 313 313 314 316 318 316 310 306 311 312 313 311 312 310 307 309 308 305 304 300 304 304 300 304 305 307 307
312 312 312 312 312 312 312 312 312 312 312 313 311 311 310 311 311 311 312 313 312 313 316 318 319 314 307 311 313 311 311 310 311 311 310 310 310 305 303 304 301 298 299 295 303 305 306
312 312 312 313 313 312 312 312 312 312 312 313 312 311 311 310 311 311 312 312 312 316 317 318 314 313 304 311 308 309 309 306 308 309 310 310 307 302 301 296 294 297 290 293 296 304 305
312 313 313 313 313 312 312 312 312 312 312 312 311 311 311 310 310 311 311 311 315 315 316 317 314 305 309 302 306 307 310 309 306 306 305 305 302 298 298 295 287 291 292 294 293 299 301
312 312 313 313 312 312 312 311 311 311 311 311 311 310 311 311 311 311 310 315 309 309 313 306 304 304 304 306 309 306 309 306 306 304 298 302 296 293 297 298 298 296 294 293 297 300 298
312 313 312 312 312 311 312 311 311 311 311 311 311 311 311 311 311 311 310 309 307 308 300 307 306 305 306 306 300 305 308 301 300 295 299 296 293 298 300 299 297 295 293 293 296 299 298
312 312 312 311 311 310 310 311 311 311 311 311 310 311 311 311 310 310 312 309 313 313 300 303 303 302 303 305 300 301 305 302 297 295 295 293 295 299 298 296 294 294 293 292 292 296 298
311 312 311 312 311 311 311 311 312 311 311 311 310 310 311 310 307 313 311 314 314 313 295 297 298 302 303 303 299 305 306 301 298 294 295 294 298 296 296 294 295 291 297 295 294 292 287
311 311 312 311 311 311 312 312 312 312 311 310 310 310 310 309 312 309 311 315 314 309 286 298 299 307 303 299 301 301 307 302 295 295 295 292 294 294 293 294 297 293 297 294 293 291 291
311 311 312 312 312 311 311 311 311 311 311 310 310 310 310 313 314 314 314 315 312 295 286 294 299 297 298 300 300 301 301 304 302 296 296 296 300 298 296 298 298 298 294 293 292 290 283
311 312 312 312 311 311 311 311 311 311 310 310 310 310 307 313 309 314 315 310 295 289 298 294 295 297 296 296 296 298 296 295 293 289 289 294 293 298 299 295 298 296 291 283 281 282 282
311 311 311 311 311 311 310 310 310 310 309 309 308 307 311 312 315 314 310 301 289 295 294 298 297 296 294 296 295 295 295 292 296 294 290 286 284 293 297 294 292 293 291 283 276 278 282
310 310 311 311 311 311 311 310 310 309 308 307 306 315 313 317 316 313 303 294 293 294 297 294 296 293 293 295 295 294 294 292 295 295 288 287 286 295 296 297 297 293 288 293 285 287 283
310 310 310 311 311 311 311 310 310 310 308 305 306 311 312 317 315 308 299 294 296 299 298 297 291 294 290 292 292 293 292 296 294 297 298 292 285 292 294 297 297 295 296 286 287 278 277
309 310 311 311 311 311 311 310 310 309 307 304 308 306 313 315 312 303 295 295 297 299 298 295 294 292 293 291 292 291 292 295 297 296 297 294 290 289 294 291 290 292 290 291 290 287 280
310 310 311 311 310 310 310 310 309 308 304 306 308 299 313 311 299 302 297 297 297 297 300 298 298 296 293 293 291 291 291 294 298 298 292 296 291 286 288 295 297 293 293 291 284 283 288
310 310 310 310 310 310 309 309 307 306 304 303 303 304 313 310 297 296 299 299 300 296 297 296 295 298 297 293 289 293 294 298 299 297 294 295 289 283 285 290 293 289 291 292 292 292 285
310 310 310 310 310 309 309 308 306 305 305 305 304 298 304 304 304 299 296 296 295 299 296 298 297 298 296 293 295 291 292 296 299 298 301 298 291 286 282 285 290 286 290 292 290 286 287
310 310 309 309 308 308 308 308 307 305 304 307 305 300 302 294 296 297 297 297 295 294 298 298 296 295 293 289 291 291 293 294 297 300 298 296 288 290 290 291 292 290 290 292 290 290 286
309 308 307 306 305 305 306 307 307 305 304 308 299 296 298 295 299 298 297 296 295 296 295 293 292 294 294 291 291 289 293 293 293 297 296 297 288 291 288 291 291 289 292 292 292 292 291
309 307 305 304 304 304 304 305 306 306 305 305 304 304 297 294 297 296 296 295 294 295 296 297 296 294 292 294 299 299 299 299 298 295 294 293 290 288 283 289 289 285 290 291 291 294 293
308 306 304 304 303 303 303 303 304 305 304 304 304 303 295 290 293 293 294 295 295 295 292 296 297 294 298 303 302 301 300 300 299 298 300 291 290 289 285 288 278 289 296 295 292 295 297
306 304 303 303 302 303 303 303 303 304 304 302 304 301 298 290 294 293 296 295 296 297 295 296 298 301 304 300 294 292 295 291 297 298 297 295 291 286 284 283 287 289 294 293 292 292 298
305 303 303 302 301 302 302 302 302 303 304 303 302 306 302 293 293 297 294 295 292 290 293 297 301 304 303 296 292 287 286 290 290 293 299 296 293 287 286 281 279 291 295 298 296 287 300
303 302 302 301 301 301 302 301 302 302 303 302 301 309 303 293 297 299 294 293 296 293 291 294 296 297 302 294 289 288 288 293 288 287 289 290 287 284 285 283 288 296 297 298 285 289 298
302 302 301 300 300 301 301 302 302 302 303 303 301 307 301 295 297 299 300 297 297 295 290 294 293 294 295 291 291 291 289 290 290 293 291 287 288 287 288 284 282 300 297 288 296 300 299
301 301 301 300 300 301 301 302 302 301 302 302 298 306 306 301 298 302 302 303 302 301 296 297 294 293 294 293 295 294 291 293 291 287 296 290 294 290 289 291 301 302 300 300 303 300 299

GFSGBSN_sfc_thetae_063.txt.gz
Theta_e
313 313 313 313 313 312 312 312 312 312 312 312 312 313 313 313 312 312 312 313 313 314 314 315 316 317 312 306 305 319 329 327 318 311 309 303 298 295 291 297 299 298 300 302 305 306 308
313 313 313 313 313 313 312 312 312 312 312 312 312 312 311 311 311 312 312 313 313 313 314 315 316 318 309 301 308 312 317 312 311 304 305 303 299 301 296 295 294 297 298 300 302 302 304
313 313 313 313 313 313 312 312 312 312 312 312 312 312 312 311 312 311 313 313 313 313 314 316 317 315 306 302 307 307 308 302 306 308 304 305 305 300 298 295 299 298 294 297 299 301 300
314 313 313 313 313 312 312 312 312 312 312 312 312 311 311 311 311 311 312 313 312 313 315 318 318 310 302 312 305 305 305 305 308 307 306 305 305 300 296 298 297 293 292 287 295 300 302
313 313 313 313 312 312 311 311 311 312 312 312 311 311 310 311 311 312 312 312 312 314 316 318 310 305 303 310 306 306 303 303 306 307 307 309 301 297 297 291 286 288 285 287 292 298 298
313 313 313 313 313 311 311 312 312 312 311 312 312 312 311 311 311 312 311 312 313 313 315 315 312 302 306 302 306 306 306 307 304 304 303 302 296 292 290 287 281 285 286 289 290 293 294
313 313 313 313 312 311 312 312 312 312 312 312 312 312 311 312 312 311 308 306 303 302 305 305 306 303 305 307 308 304 308 305 304 300 293 296 290 286 290 293 294 293 291 290 293 297 294
312 312 312 312 312 311 311 311 312 313 312 312 312 312 312 312 311 311 305 302 303 302 296 304 304 304 306 305 299 303 307 299 297 291 294 291 286 294 296 296 294 293 290 289 293 296 294
311 311 311 311 311 311 312 311 313 312 312 312 311 311 311 311 310 308 305 307 309 307 294 300 305 301 302 302 299 300 303 300 294 291 291 288 291 296 295 293 291 291 289 290 290 294 295
311 311 311 310 310 312 312 312 313 313 312 311 311 311 311 310 306 307 305 309 309 307 288 296 296 300 302 301 297 305 305 300 295 291 292 290 294 293 293 291 292 288 295 294 292 288 283
311 311 312 311 311 311 311 311 312 312 312 311 310 310 310 309 302 304 305 308 308 303 282 297 297 305 301 297 299 301 305 300 293 292 291 288 290 291 291 292 295 291 295 293 292 287 284
311 310 311 311 312 312 311 311 311 311 311 311 310 310 309 309 306 309 310 309 306 290 283 292 298 296 295 298 299 301 300 301 299 293 293 292 297 294 295 296 295 297 293 292 290 284 279
310 309 310 312 312 312 311 311 311 311 311 310 310 309 307 308 304 312 308 303 288 286 297 292 293 296 294 294 296 297 295 291 289 285 285 291 291 294 297 291 294 292 288 279 276 276 277
309 309 311 311 312 311 311 310 310 310 310 309 307 306 309 310 310 310 304 294 284 294 292 297 295 294 292 295 295 295 292 289 295 291 285 283 281 290 296 291 288 288 286 280 275 275 278
310 310 311 312 311 311 311 310 310 309 308 306 305 308 308 312 313 308 297 287 289 293 295 293 293 291 291 294 293 292 290 290 293 293 284 282 285 294 295 294 291 287 284 287 282 283 280
309 311 311 311 311 311 310 310 309 308 306 305 300 305 308 313 311 303 293 291 294 296 295 294 288 293 287 290 289 289 289 295 293 295 294 289 282 291 293 295 294 291 292 282 284 274 275
310 311 311 311 310 310 310 309 308 307 305 305 301 302 308 309 307 298 288 292 296 298 297 293 291 290 290 289 289 288 289 293 296 295 295 291 286 287 291 288 287 288 286 288 287 284 277
310 311 311 310 310 309 309 309 308 306 304 303 301 296 308 307 293 297 292 296 299 298 299 296 296 294 292 292 289 289 289 293 298 296 290 292 287 282 286 291 295 292 288 289 282 280 282
310 310 310 309 309 307 307 307 308 307 304 300 298 300 309 306 290 290 296 296 298 296 296 295 293 295 295 291 287 292 292 297 298 295 292 292 285 279 281 285 291 288 290 290 288 287 282
310 310 309 308 307 306 306 306 306 306 304 301 300 294 299 299 298 293 292 292 293 300 297 296 295 295 293 290 291 289 290 296 297 296 301 297 287 283 279 283 286 285 288 290 286 280 283
310 309 308 306 305 305 305 305 305 305 304 302 301 294 295 288 289 292 294 294 292 294 297 296 293 292 290 286 288 288 290 291 295 298 295 292 285 288 289 290 290 289 288 289 287 287 284
309 309 307 305 304 304 304 305 305 305 304 302 293 292 294 291 294 292 294 293 292 293 292 291 289 292 291 287 289 286 289 290 289 293 291 294 286 289 286 290 289 287 289 290 290 290 289
309 307 305 304 304 304 303 304 305 305 303 299 300 300 294 292 291 289 290 291 292 293 295 295 292 290 289 291 295 295 295 294 293 291 291 291 288 286 282 288 287 282 287 289 291 292 290
308 306 304 304 303 302 302 302 304 304 304 298 299 300 293 287 290 290 291 292 292 292 290 294 294 292 295 300 298 297 295 295 295 295 295 290 288 287 282 284 275 287 293 294 292 293 292
307 305 304 303 302 302 302 302 302 303 304 298 298 297 293 288 291 291 293 292 293 293 291 292 295 298 299 295 290 287 289 289 294 296 295 294 290 283 279 278 285 288 293 291 289 288 296
306 304 303 302 302 302 302 302 302 302 302 298 298 300 298 291 288 295 291 293 288 290 290 293 296 299 296 293 289 283 278 288 288 291 297 294 293 286 282 276 273 287 296 297 294 282 296
305 303 302 302 301 301 302 302 302 302 302 299 297 300 297 291 293 294 289 289 292 291 290 291 293 291 296 290 287 281 283 290 282 283 287 288 287 283 282 280 284 295 297 297 283 283 296
304 302 302 301 301 301 301 302 302 302 302 300 297 300 298 292 293 296 296 292 292 292 289 292 290 291 291 288 288 288 284 287 285 289 286 282 283 283 285 282 278 299 296 288 291 296 296
303 302 301 301 301 301 301 302 302 302 302 302 294 300 301 295 294 299 298 298 297 296 292 294 292 291 292 289 291 288 286 288 286 282 292 283 289 287 287 286 297 300 298 298 299 297 297

GFSGBSN_sfc_thetae_069.txt.gz
Theta_e
314 314 314 313 312 312 312 312 313 312 312 311 311 312 313 312 312 311 311 312 312 313 313 314 315 316 309 301 304 314 330 327 320 314 306 302 294 291 286 290 293 291 294 297 298 298 298
314 314 314 313 312 312 313 313 313 313 313 313 313 313 313 312 312 311 311 311 311 312 313 314 315 317 304 292 310 314 315 314 312 306 302 300 295 297 291 290 289 293 293 294 296 296 297
314 314 314 313 313 313 312 312 312 312 313 313 313 313 313 312 311 311 312 311 311 312 313 314 316 314 302 293 308 308 314 304 305 306 300 301 301 296 294 291 293 293 288 292 294 296 295
313 313 313 313 313 312 312 311 312 312 313 312 312 313 313 312 312 311 312 312 312 313 314 314 317 308 296 307 310 306 304 303 303 304 302 302 300 296 292 293 292 288 285 281 289 293 295
313 313 313 312 312 312 311 311 311 312 312 312 313 313 313 311 312 312 312 312 313 314 315 315 306 301 299 314 303 305 301 299 301 303 303 307 298 293 293 287 284 285 280 283 287 293 293
313 313 312 312 311 312 311 312 313 312 312 312 314 313 312 311 311 312 311 311 311 311 313 314 310 299 302 302 303 303 301 302 300 300 299 298 292 288 286 284 279 283 282 285 285 290 292
312 312 312 312 311 311 312 312 312 311 312 312 313 313 311 311 312 311 307 300 296 295 302 297 303 302 306 310 305 300 303 302 301 295 288 291 286 283 286 288 289 288 286 285 289 292 290
311 311 311 311 311 312 312 313 312 311 311 312 312 312 311 311 311 311 302 300 300 299 293 301 301 304 307 307 299 299 304 296 294 288 290 287 283 290 291 291 290 288 285 285 289 294 292
310 311 311 311 312 312 312 312 311 311 310 310 311 311 311 310 310 304 300 302 306 300 291 297 301 300 300 302 298 296 300 296 291 287 287 284 288 293 290 289 289 287 285 286 287 291 292
310 311 310 311 312 312 312 312 310 310 311 310 309 309 309 309 303 299 301 306 303 300 287 294 295 299 299 297 294 301 302 297 291 288 288 286 290 290 288 289 290 284 291 291 289 286 280
310 310 311 311 311 311 311 311 310 310 310 309 308 309 309 308 298 299 304 304 301 301 278 297 294 300 296 293 295 298 302 296 290 290 288 286 287 287 287 289 293 288 292 289 289 286 283
310 310 311 311 311 311 310 309 309 309 309 309 309 308 308 304 300 303 305 301 302 287 280 291 296 294 292 294 295 297 297 297 296 289 289 288 292 290 290 294 293 293 288 287 285 281 276
310 311 311 311 310 310 309 308 308 308 308 308 307 308 305 305 299 302 302 299 286 281 294 289 290 292 291 292 293 294 292 289 285 281 281 287 287 290 295 289 290 286 281 274 274 274 275
310 311 311 311 310 309 308 307 306 307 307 307 306 306 305 305 301 303 298 292 282 289 289 294 292 291 289 292 291 292 290 286 292 288 282 280 279 288 293 288 285 284 281 274 271 274 276
310 311 310 310 309 308 307 306 306 306 306 305 304 299 302 305 307 299 294 283 284 288 292 290 291 288 288 291 290 289 287 288 290 289 282 279 282 292 293 292 289 284 279 283 278 279 274
310 310 309 310 308 306 307 306 306 306 305 305 296 299 301 306 302 299 290 288 290 296 295 292 286 289 284 286 286 286 286 293 291 293 290 286 280 289 291 292 291 287 288 279 275 269 271
310 310 310 309 307 307 306 306 306 305 304 303 298 297 304 300 302 295 284 288 293 297 297 291 288 287 287 286 286 285 287 291 294 292 291 287 284 284 288 285 283 283 281 283 280 282 276
310 310 310 308 306 306 306 305 305 305 303 299 294 291 303 301 291 287 286 291 296 295 298 293 292 291 288 288 286 287 287 290 295 293 287 289 284 280 284 290 291 288 284 283 275 277 279
310 310 309 308 306 305 305 305 305 304 303 298 291 293 303 298 281 283 288 292 294 294 293 293 290 291 291 287 284 289 289 294 294 291 288 289 283 279 280 283 287 286 287 286 284 284 279
309 309 308 306 305 305 305 304 304 304 303 297 292 286 290 290 289 285 285 288 290 297 294 293 291 291 288 285 287 286 287 293 293 292 298 295 286 284 279 281 283 284 287 287 284 281 280
309 309 308 306 305 304 304 304 304 303 303 295 289 286 288 282 284 285 286 288 289 289 292 291 288 289 286 282 284 284 288 288 291 295 291 288 281 284 286 288 288 287 287 288 286 286 281
309 309 308 306 304 303 303 303 304 303 302 295 289 287 288 285 288 286 287 287 287 289 288 287 285 288 287 283 285 284 285 285 285 289 287 287 283 288 284 288 288 286 288 288 289 288 287
309 309 307 305 304 303 303 303 303 303 299 291 293 293 290 286 284 283 283 287 287 288 290 291 288 286 285 287 290 291 291 290 289 287 285 284 282 282 280 286 285 281 286 287 287 289 288
309 309 307 305 303 302 302 303 303 303 299 291 292 290 288 284 285 285 288 289 287 288 286 290 290 285 290 294 292 291 290 290 290 290 291 285 285 287 282 281 274 284 293 294 290 291 291
308 309 307 304 303 302 302 302 302 302 303 293 292 290 288 285 287 286 288 288 287 288 287 288 290 292 292 289 285 283 283 284 288 289 289 289 288 284 280 278 282 285 291 291 287 287 292
308 308 306 304 303 302 302 302 302 302 303 292 291 292 290 287 284 290 287 287 283 281 284 288 291 292 289 286 284 282 279 283 283 288 292 289 291 286 282 278 271 282 294 296 292 283 293
307 308 306 304 302 302 302 302 302 302 302 295 292 293 290 287 289 288 284 284 285 282 281 284 289 287 289 283 278 280 281 288 280 281 285 287 286 282 282 280 282 290 295 297 283 283 294
307 307 305 304 302 302 302 301 302 302 301 297 293 294 291 288 289 290 291 286 285 284 280 284 285 288 283 282 283 284 285 287 284 286 284 280 283 281 284 281 278 297 294 286 290 292 297
307 307 305 303 302 302 301 301 302 302 302 302 292 294 295 291 288 291 292 293 292 291 286 285 283 285 288 279 286 284 281 283 283 281 289 279 284 284 285 282 291 295 295 297 297 298 298

GFSGBSN_sfc_thetae_072.txt.gz
Theta_e
315 315 314 314 313 312 312 312 313 313 313 313 313 313 313 313 312 311 311 312 311 311 312 313 314 315 308 297 302 313 329 324 316 311 303 300 293 290 287 290 291 289 291 295 297 297 297
314 314 314 314 313 313 312 312 312 312 313 313 313 312 312 312 312 312 311 311 311 310 311 313 314 317 301 289 304 310 315 314 312 306 301 300 294 295 290 289 290 292 291 293 296 296 297
314 313 313 313 313 312 312 311 312 312 313 313 313 312 312 312 312 312 312 313 312 312 312 314 315 313 300 291 306 308 310 304 304 305 299 299 298 295 293 289 291 292 287 290 293 294 293
313 313 313 312 312 312 311 311 312 312 312 313 312 312 312 312 312 312 313 313 312 313 313 314 316 307 293 304 307 309 305 304 303 303 301 300 300 294 291 291 291 286 284 280 287 292 294
313 313 313 312 312 312 311 312 312 312 312 312 312 312 312 312 312 313 313 312 313 313 314 315 304 299 298 312 303 304 301 298 299 301 301 305 297 292 292 286 283 284 280 281 286 291 291
312 312 312 312 312 312 312 313 313 312 312 312 311 311 310 310 311 312 311 311 312 313 313 314 310 297 300 301 306 301 300 300 298 298 297 295 291 287 285 283 278 281 281 284 284 289 290
312 312 312 311 312 313 313 313 312 311 311 311 310 311 311 310 310 311 307 299 296 294 302 295 299 300 304 308 306 299 301 300 299 294 287 290 286 282 285 287 287 286 285 284 287 291 289
311 311 311 311 312 311 312 312 310 310 310 310 310 310 309 310 310 310 301 299 299 298 292 300 299 303 306 306 298 301 302 294 293 287 289 286 282 288 290 289 288 286 284 283 288 292 290
310 310 310 311 311 311 311 310 310 309 308 310 309 309 309 309 310 302 299 301 304 299 290 295 299 298 299 302 297 297 299 295 290 286 286 284 287 292 289 287 287 286 284 284 286 289 290
310 310 311 311 311 311 309 309 308 308 308 308 307 308 309 309 302 298 299 304 302 299 286 292 294 297 299 297 294 301 300 296 290 287 287 285 289 289 286 287 288 283 289 289 288 284 278
310 311 312 311 309 309 309 307 307 307 307 307 308 308 309 308 297 298 302 302 300 299 277 294 292 298 294 292 294 296 301 295 289 288 287 286 285 286 285 287 291 286 290 288 287 283 281
310 310 311 309 309 309 308 308 306 306 307 308 307 308 308 303 298 301 303 300 301 285 278 290 294 292 291 293 294 296 295 297 295 289 287 287 290 288 288 291 292 291 286 284 282 280 274
311 310 311 309 309 308 308 307 306 306 307 307 307 308 304 304 297 300 300 298 285 280 292 288 289 291 289 290 292 292 291 288 285 281 281 286 286 289 293 287 288 285 280 274 273 273 274
311 311 310 310 308 308 307 307 306 306 306 306 306 305 305 304 301 302 298 290 280 287 287 293 290 290 287 290 290 290 288 285 290 287 282 281 280 286 292 287 284 283 281 274 270 272 274
310 311 310 310 308 307 307 306 306 305 305 305 304 300 301 304 305 299 293 281 283 287 291 289 289 286 286 290 289 288 285 286 289 289 281 279 283 291 292 291 289 283 278 282 277 276 273
310 311 310 310 308 306 306 306 305 305 305 305 297 299 300 301 301 297 290 287 289 295 294 290 285 288 283 285 285 285 285 291 290 292 289 285 280 288 290 290 289 286 287 278 274 269 267
310 310 310 308 307 306 305 305 305 305 304 303 297 296 302 301 301 294 284 287 292 297 295 290 287 285 286 285 286 284 286 289 293 291 289 286 283 284 287 285 283 282 280 282 278 275 271
310 310 310 308 307 305 305 305 305 304 303 299 294 290 301 299 290 285 285 290 296 294 296 293 290 288 287 287 285 285 286 289 294 292 286 287 282 279 283 289 289 285 283 282 275 276 278
309 310 309 307 307 305 305 305 305 304 303 296 291 292 301 297 281 282 286 290 293 293 292 291 290 290 289 286 283 287 289 292 293 290 288 288 282 277 279 281 286 283 285 284 284 282 279
309 310 309 307 306 305 305 305 305 304 303 296 290 285 288 289 288 285 285 286 289 295 293 292 290 290 286 284 286 285 286 292 292 291 297 294 284 282 277 280 281 281 285 287 286 280 280
308 309 309 307 305 304 304 304 304 303 303 294 289 285 286 280 282 284 285 287 287 288 291 289 287 287 285 281 283 283 286 287 290 293 290 287 281 284 286 287 287 286 286 287 285 285 282
308 309 309 307 305 304 303 304 304 303 302 293 287 285 286 283 286 284 286 285 286 288 287 286 284 287 285 282 284 283 285 283 284 288 286 290 282 284 283 287 286 284 286 287 287 287 287
307 308 309 307 305 303 303 303 303 304 298 289 291 291 290 286 283 282 282 286 287 287 289 290 287 285 284 286 288 288 288 289 288 286 285 284 282 282 278 284 284 280 285 286 287 288 288
307 308 309 307 305 303 303 303 303 303 298 292 291 289 287 283 285 283 287 287 286 287 285 288 288 284 289 291 290 289 288 289 289 288 290 283 284 284 280 283 275 284 289 292 289 290 290
306 307 309 307 305 303 303 302 303 303 302 292 291 289 286 283 287 286 287 286 288 287 285 287 289 290 290 287 283 282 282 283 287 288 288 289 286 283 280 277 281 285 288 289 286 287 293
305 307 308 307 305 303 302 302 302 302 302 292 290 290 287 285 283 289 286 286 282 281 283 286 289 290 287 284 283 278 273 282 282 288 292 290 289 284 283 276 271 282 291 294 291 283 292
306 307 307 307 305 303 302 302 302 302 302 293 290 291 289 285 289 287 283 282 285 282 280 282 288 285 287 286 282 279 279 286 279 281 285 285 285 281 282 279 282 289 294 295 281 282 291
306 306 307 307 305 303 302 302 302 302 301 295 291 292 289 285 288 289 290 285 284 283 279 282 281 285 282 279 282 283 284 283 284 286 286 284 283 280 283 280 276 296 294 286 289 293 294
306 306 307 307 305 303 302 302 301 302 301 300 290 293 296 290 288 290 292 292 291 290 284 283 282 282 284 277 282 280 279 279 281 280 289 279 283 279 284 281 291 295 293 295 294 293 296

GFSGBSN_sfc_thetae_075.txt.gz
Theta_e
315 315 314 314 313 313 312 311 312 312 313 313 313 313 313 313 313 312 311 312 311 311 311 312 313 314 312 301 305 315 328 324 317 312 307 304 301 298 296 297 298 297 297 299 301 301 301
314 314 313 313 313 312 312 312 313 313 313 313 312 312 313 313 313 312 311 311 313 311 311 311 313 315 307 294 310 314 319 318 314 311 306 306 302 302 299 297 297 298 298 298 300 300 301
313 313 313 313 313 313 312 312 312 313 313 313 313 312 312 312 312 312 312 312 313 312 312 313 314 314 303 297 311 313 314 310 310 309 304 305 305 301 300 296 299 298 294 296 297 299 298
313 313 313 313 313 313 312 312 312 312 312 313 313 312 311 311 311 311 312 312 312 312 313 314 315 312 299 306 311 313 312 310 310 309 306 306 306 302 300 300 297 294 293 290 295 297 298
312 312 312 312 313 313 312 312 312 311 311 312 311 310 311 311 311 312 312 312 314 314 314 315 311 307 302 315 307 307 309 304 303 305 306 305 304 299 299 295 293 292 289 289 292 298 297
312 312 312 312 313 312 312 312 311 310 309 309 310 311 310 310 311 311 311 311 315 316 314 315 312 303 306 304 310 306 306 304 301 303 301 301 299 297 295 293 286 287 288 290 290 295 296
312 312 312 312 312 312 311 310 310 310 309 309 309 309 310 310 311 311 310 307 304 301 308 300 301 302 304 310 310 303 305 303 303 300 294 296 294 291 292 293 292 291 290 289 292 296 294
311 311 311 311 312 310 310 310 309 308 308 308 308 309 309 309 310 311 307 305 303 305 297 302 303 303 306 308 301 304 306 299 298 293 294 293 290 294 294 293 291 291 289 289 292 295 294
311 311 311 311 310 311 309 309 308 308 308 308 307 308 308 309 310 307 306 306 308 304 297 299 301 301 302 305 300 301 303 299 296 293 293 290 292 295 293 292 291 291 290 290 289 293 294
311 311 311 311 310 309 308 308 308 307 307 308 307 308 308 309 306 304 305 308 308 306 293 294 297 301 303 303 297 305 304 300 295 292 292 292 294 292 292 291 293 288 293 292 291 289 284
311 311 311 311 310 309 308 307 307 307 307 307 307 309 309 308 305 305 307 308 307 306 282 296 296 304 300 297 298 299 303 300 294 293 292 290 292 291 290 291 294 290 294 292 291 289 288
311 311 311 310 310 309 308 307 307 306 307 307 308 309 308 307 306 308 308 307 308 293 282 292 297 295 296 297 297 299 298 301 299 294 293 293 295 294 293 294 296 295 292 291 289 288 282
310 311 311 310 310 308 308 307 307 306 307 307 308 308 307 306 304 306 307 306 294 286 294 291 292 294 293 293 294 295 294 293 291 287 288 291 292 294 296 292 293 292 289 283 281 281 281
310 311 311 309 309 308 307 307 306 306 306 306 306 306 307 307 309 308 306 299 287 290 289 295 293 293 291 293 293 293 292 291 294 291 289 286 284 291 295 293 290 290 289 283 276 278 281
309 311 310 309 308 308 307 306 306 306 305 305 305 308 309 310 309 306 302 292 290 290 294 292 292 290 290 292 292 292 291 291 293 295 289 287 286 294 295 295 294 289 286 290 285 285 281
309 310 310 310 308 307 307 306 306 306 305 305 304 307 308 307 307 305 298 291 292 296 296 294 288 291 287 289 289 290 290 293 293 296 296 291 285 292 293 295 294 292 293 285 286 277 275
309 310 309 309 308 307 306 306 306 306 304 304 304 304 308 305 308 302 294 292 295 299 297 294 290 289 290 289 290 289 290 293 296 295 296 293 289 288 291 290 288 289 288 289 288 285 279
309 309 310 309 308 307 306 306 306 305 303 302 302 298 307 306 297 293 292 293 295 295 298 296 294 293 291 291 290 290 289 292 297 297 291 294 291 285 287 293 294 292 290 290 283 281 285
308 309 310 309 308 306 305 305 305 304 303 300 297 298 307 303 292 290 291 291 293 293 295 294 292 293 293 291 288 291 292 296 297 296 293 295 289 283 284 288 291 289 290 290 290 288 283
308 308 309 309 307 306 305 305 305 304 303 301 295 292 295 295 293 290 288 288 290 297 295 294 293 294 291 290 292 290 290 294 295 294 297 296 290 286 281 284 289 286 289 290 289 283 285
307 308 309 309 308 306 304 305 305 304 303 299 294 291 291 287 288 289 289 289 288 289 293 294 291 291 289 287 288 288 290 291 293 295 294 293 286 288 289 290 289 288 288 288 287 289 284
306 307 308 309 307 305 304 304 305 304 301 298 292 291 292 290 290 289 289 288 288 289 290 289 289 290 290 287 289 287 289 289 288 292 292 294 286 288 285 289 289 287 289 290 289 290 289
307 306 308 309 307 305 304 304 304 304 299 294 295 295 294 289 288 287 287 288 289 289 291 292 291 289 288 289 292 293 293 293 292 290 290 290 288 285 281 286 286 283 288 289 290 292 292
306 306 307 309 307 305 303 303 303 303 299 295 294 293 292 285 288 287 288 289 287 288 287 291 292 289 292 295 295 295 293 292 292 291 293 288 287 286 282 284 277 288 294 294 292 293 295
306 306 307 308 307 305 303 303 303 303 301 297 295 293 291 286 288 286 288 288 290 290 288 289 291 294 295 292 287 286 288 289 290 291 290 291 288 283 281 282 286 288 292 292 291 291 296
305 305 306 307 307 306 304 303 302 303 302 298 296 295 293 287 285 289 288 288 286 286 287 288 293 296 294 291 288 281 280 284 285 288 293 289 289 285 284 280 278 288 294 298 296 286 297
306 306 306 307 308 306 304 303 302 302 302 299 297 296 293 286 289 291 287 285 290 288 285 287 289 288 294 288 284 282 282 288 283 283 284 286 285 282 282 280 286 294 295 299 284 288 297
306 306 306 306 307 306 304 303 302 302 302 299 297 297 294 289 289 290 292 289 289 288 284 287 286 288 289 286 285 285 284 286 284 287 285 283 284 284 285 282 280 297 296 289 295 299 298
305 305 306 305 307 307 305 303 302 302 302 300 295 297 296 290 290 295 294 295 293 293 289 289 287 288 291 289 288 287 285 287 285 281 292 285 290 286 288 288 297 299 297 299 299 297 298

GFSGBSN_sfc_thetae_078.txt.gz
Theta_e
315 314 314 314 313 313 313 313 313 313 314 314 314 314 314 314 314 314 313 313 312 313 312 312 312 315 316 306 308 321 328 324 317 314 309 307 304 303 300 302 303 302 304 305 307 307 307
314 314 314 313 313 313 313 312 313 313 313 313 314 314 313 313 312 312 312 313 313 313 313 312 314 315 311 298 314 317 318 316 314 312 308 308 305 306 302 302 301 303 303 303 305 305 306
314 314 313 313 314 314 313 313 312 312 313 313 313 312 311 311 312 312 312 312 312 312 312 314 314 316 307 301 315 318 317 313 312 310 306 308 308 304 304 301 303 302 299 302 303 304 303
314 313 313 313 313 313 312 312 312 311 311 311 311 311 311 311 311 312 313 313 312 313 313 314 315 315 303 309 316 315 316 312 313 312 310 310 309 305 303 304 301 298 299 295 301 300 302
313 313 313 313 313 313 312 311 310 311 310 310 311 310 310 310 311 312 312 312 315 315 314 315 315 312 303 316 310 311 314 307 308 309 310 308 308 304 302 298 296 298 292 294 296 301 300
313 312 312 313 313 312 312 311 309 310 309 309 309 309 309 310 310 311 311 312 316 317 316 317 315 308 308 304 310 310 311 309 305 306 305 305 304 300 300 297 290 293 293 294 294 299 299
312 312 312 312 312 312 310 309 309 309 309 309 309 309 309 309 310 311 313 315 310 309 311 305 304 304 306 311 313 308 309 306 306 304 298 301 297 295 297 297 297 296 294 293 296 299 297
312 312 312 312 311 310 310 309 309 308 308 308 308 309 309 309 310 311 314 309 308 309 302 307 306 306 309 310 303 306 309 302 301 297 299 297 294 299 298 297 295 295 294 294 297 298 297
312 312 312 311 311 311 309 309 308 308 308 308 308 309 309 309 310 312 312 309 314 311 303 302 306 304 305 308 302 303 306 303 299 297 297 294 296 298 296 295 294 295 293 294 293 296 298
312 312 312 311 311 311 309 308 308 308 308 308 308 309 310 310 309 315 311 314 314 313 299 298 301 304 306 306 300 307 307 303 299 296 297 296 299 296 295 294 295 291 296 294 293 293 289
311 312 312 311 310 310 309 308 307 307 307 308 308 310 310 308 315 312 312 316 315 312 288 298 300 309 305 301 301 302 308 304 297 297 297 294 295 295 294 295 297 294 297 295 295 293 292
311 311 312 311 310 310 308 308 307 307 308 308 308 309 309 313 317 313 316 315 314 298 287 295 300 299 299 301 301 302 302 305 304 299 299 297 302 298 297 298 298 298 296 296 295 293 286
310 311 311 310 310 309 308 307 307 307 308 307 308 308 310 313 311 316 316 312 299 291 298 295 295 298 298 297 299 299 299 298 295 292 292 296 296 299 299 295 298 297 294 287 285 286 285
310 311 311 311 309 309 308 307 307 307 307 307 306 306 311 316 317 317 313 304 292 295 295 298 297 298 295 298 298 298 297 295 299 297 293 290 289 296 299 297 294 295 294 287 280 283 286
310 310 311 311 310 309 308 307 306 306 306 305 305 317 318 320 317 315 307 296 295 295 297 296 297 294 294 296 295 295 295 295 298 299 292 291 291 298 297 299 298 294 290 295 289 290 286
309 310 310 311 309 308 307 307 307 306 305 305 312 314 315 314 316 312 302 295 297 299 299 298 291 294 291 293 292 293 293 296 295 299 301 296 289 296 297 298 299 296 297 288 289 281 280
309 309 310 310 309 308 307 307 307 306 304 305 313 308 313 315 315 306 297 297 298 301 301 296 294 293 294 293 294 293 293 296 298 297 300 298 294 292 295 293 292 293 291 292 292 290 284
308 309 309 310 309 308 307 306 306 305 303 305 308 300 314 315 300 304 297 297 295 297 299 297 298 296 294 295 293 293 293 296 299 299 295 298 294 289 291 297 298 296 293 293 286 286 289
308 308 309 310 309 308 306 306 306 305 303 306 300 303 314 310 295 296 297 295 295 295 295 296 296 297 297 295 291 294 295 299 299 298 295 297 292 286 288 293 295 292 294 294 294 293 288
308 308 308 309 310 308 306 305 306 305 303 305 300 297 302 305 301 294 292 292 292 298 297 299 297 298 296 294 297 293 294 297 298 299 298 298 294 288 285 288 292 289 291 293 292 286 288
307 306 307 308 310 308 306 305 305 304 303 304 299 297 298 294 296 293 293 293 291 290 296 297 294 295 294 291 292 292 294 295 296 297 298 297 290 292 292 292 291 290 290 292 290 292 288
307 306 306 307 309 307 305 304 305 304 302 302 296 295 299 295 295 293 292 292 291 292 293 291 292 293 294 291 292 290 293 293 293 296 294 296 288 291 288 291 290 288 291 292 292 292 292
307 307 306 307 309 307 305 304 304 304 302 297 299 301 297 296 293 292 291 290 290 293 292 294 294 293 292 294 296 296 296 296 295 293 292 291 289 287 284 290 289 286 290 292 293 294 294
307 306 307 307 308 307 305 304 303 303 301 299 297 296 294 293 293 292 291 291 290 291 290 293 294 292 295 299 297 296 295 295 295 295 296 290 288 288 286 287 278 290 297 297 295 296 298
307 305 306 307 307 308 305 304 303 303 302 300 299 295 294 290 292 291 291 291 292 293 291 291 293 295 298 295 291 289 290 292 294 295 293 293 289 284 282 283 287 291 295 294 294 293 299
305 304 304 307 307 308 306 304 303 303 302 301 300 299 295 289 293 292 290 291 288 289 290 291 296 299 297 294 290 284 284 287 287 290 294 292 290 285 285 281 280 290 296 300 299 289 301
305 304 305 306 306 308 307 305 303 302 302 301 301 301 294 288 293 294 290 289 292 291 289 292 292 293 297 292 287 286 285 291 285 284 287 287 286 284 284 284 289 296 299 300 287 290 300
305 304 306 306 304 306 307 306 303 302 302 301 300 302 295 290 292 294 294 292 293 292 290 294 292 294 292 287 288 289 288 290 288 290 288 286 286 285 287 284 282 300 298 290 297 301 301
304 304 305 305 304 304 307 306 304 303 302 302 297 302 300 292 292 298 298 299 298 297 293 296 293 292 294 292 292 291 287 289 287 283 294 288 292 289 290 291 300 301 298 300 300 298 297

GFSGBSN_sfc_thetae_084.txt.gz
Theta_e
316 315 315 315 315 314 315 313 314 313 312 312 312 312 312 312 312 313 313 313 314 314 314 315 315 315 315 312 310 317 330 325 319 317 314 310 307 306 302 304 306 304 305 307 308 309 308
315 315 315 315 315 314 314 313 312 312 311 312 311 311 311 312 312 312 312 313 314 314 314 314 315 315 312 305 319 317 317 316 316 313 312 310 308 309 305 304 303 306 306 306 307 307 308
315 315 315 315 315 314 313 311 311 311 311 311 311 311 311 311 311 312 312 314 314 314 315 315 316 315 309 309 315 319 318 315 316 312 308 311 310 307 306 303 307 305 301 303 304 305 305
315 315 315 315 314 314 312 311 311 311 310 311 311 311 310 311 311 312 313 313 314 316 316 316 316 315 307 316 316 315 317 314 314 313 311 311 311 307 305 306 304 300 301 296 302 304 305
315 314 315 314 314 313 312 311 310 310 310 310 310 311 310 311 311 312 312 312 314 318 318 316 314 313 308 314 308 314 315 311 312 311 311 311 308 303 304 299 297 299 293 295 298 304 304
314 314 314 315 313 313 312 311 311 310 310 310 310 311 310 311 312 312 312 312 318 314 316 317 317 309 312 309 309 312 315 313 308 308 307 306 305 300 300 298 290 293 295 297 297 302 303
313 314 314 313 313 313 312 311 310 310 310 310 310 310 310 312 312 312 312 317 312 312 315 311 310 310 310 311 314 310 312 309 308 305 299 304 299 296 299 301 301 300 298 296 299 303 301
313 313 313 313 312 312 312 311 310 310 310 310 310 310 311 312 312 312 312 314 311 311 304 312 313 309 311 312 305 308 312 304 303 298 302 300 296 301 302 301 299 299 296 295 298 301 300
312 312 313 312 312 311 312 311 310 310 310 310 310 310 311 312 312 311 316 312 317 316 304 308 310 306 307 310 304 306 308 305 300 299 300 297 300 303 301 299 297 297 295 295 295 299 300
312 312 312 313 312 311 311 311 310 310 310 310 310 310 311 311 309 317 314 317 316 318 299 304 303 305 308 308 303 310 311 306 302 298 300 299 303 301 299 296 298 293 299 298 296 295 290
311 312 312 312 312 312 311 311 309 310 309 309 309 310 310 310 314 314 315 317 317 315 291 303 304 312 309 304 305 305 311 306 299 299 300 297 299 298 297 297 299 295 300 297 296 294 293
311 311 311 312 312 312 310 310 309 309 309 309 309 309 309 316 316 319 317 318 317 301 292 300 304 302 301 304 304 306 305 308 306 300 301 300 304 301 300 301 301 301 297 297 296 294 287
310 311 311 312 312 312 311 310 309 309 308 308 308 307 307 315 311 318 317 313 300 294 305 300 299 302 301 300 302 303 301 300 297 294 294 299 300 303 303 298 301 299 294 287 285 286 285
310 310 310 311 311 311 311 310 309 308 308 307 306 305 310 315 318 320 315 305 293 300 301 305 301 301 297 300 300 301 300 297 302 300 296 292 290 299 303 299 296 296 295 288 280 283 286
309 309 310 310 311 311 311 309 308 307 306 305 304 316 314 319 322 317 307 296 297 301 303 300 300 296 296 300 300 299 298 297 299 300 293 292 292 302 302 303 301 297 293 297 290 291 286
308 309 309 310 310 311 311 309 308 307 306 304 305 314 315 324 321 313 302 296 300 305 304 301 294 297 293 296 296 297 297 301 299 302 302 297 290 298 300 302 302 298 300 290 292 282 281
309 309 309 309 309 310 310 309 308 307 305 304 308 311 317 321 318 306 296 298 302 306 304 298 295 295 296 294 295 294 295 299 301 300 302 299 295 294 298 296 294 295 294 294 293 291 284
309 309 309 309 309 309 310 309 308 306 304 304 308 303 317 317 301 304 300 303 301 302 304 301 300 298 296 296 295 295 295 298 302 302 297 300 296 290 293 299 300 298 294 294 288 286 289
309 308 308 309 309 309 310 308 307 306 304 300 301 305 317 312 296 299 302 301 301 300 299 298 297 299 300 297 293 296 297 301 302 301 298 300 294 287 289 294 298 293 294 294 293 293 288
309 309 308 308 308 309 310 308 307 305 304 303 303 298 307 307 306 300 298 297 296 301 300 301 299 300 298 296 298 295 296 300 302 302 303 301 294 290 285 288 293 290 293 294 291 286 289
309 309 308 308 308 308 310 308 307 305 304 304 305 301 303 295 298 298 299 298 296 295 300 299 297 297 296 292 293 292 296 297 299 303 301 297 290 292 292 293 292 291 291 292 290 290 287
309 309 308 307 307 308 309 308 306 305 303 304 297 296 299 296 300 299 298 296 295 296 295 293 293 295 295 292 293 290 293 294 294 298 297 297 289 292 289 292 291 289 291 291 291 292 293
309 309 307 307 305 305 308 308 305 305 304 301 303 302 297 295 297 296 295 295 295 296 296 297 295 293 292 294 296 297 297 297 296 293 293 292 290 288 284 289 289 284 290 292 293 295 294
310 309 308 306 304 304 306 308 305 303 302 301 302 299 294 291 295 295 295 295 294 294 292 294 296 293 297 301 299 297 296 296 297 296 297 291 290 289 285 287 279 290 297 297 295 296 297
310 309 308 307 305 305 306 308 304 303 302 300 302 299 294 290 294 293 295 294 295 295 294 293 296 299 301 297 291 290 292 295 295 298 298 297 293 288 284 284 288 290 294 294 292 290 298
311 310 308 307 305 304 305 307 305 303 302 301 301 303 295 291 292 296 293 294 291 290 291 295 300 303 300 294 292 286 285 290 290 291 298 297 295 290 288 281 279 292 296 300 299 289 299
310 310 309 307 305 305 305 306 308 304 302 301 300 305 295 290 296 297 292 291 294 291 289 295 297 297 300 293 289 288 288 293 288 287 289 290 289 284 286 284 288 297 300 302 287 290 300
309 309 309 307 305 305 305 306 306 306 303 301 301 303 296 293 296 299 299 293 294 293 290 295 295 296 295 290 290 290 289 291 290 292 291 289 288 287 287 285 283 299 298 291 296 300 300
309 309 309 308 306 305 305 305 303 307 303 302 296 304 303 294 295 300 300 299 296 297 295 296 295 295 296 292 293 293 290 291 291 286 296 289 294 290 291 291 301 302 299 302 301 299 299

GFSGBSN_sfc_thetae_087.txt.gz
Theta_e
316 316 316 314 314 314 313 313 312 312 311 311 312 312 312 312 312 312 312 313 313 315 315 315 315 316 311 305 306 318 331 328 316 313 311 309 303 298 293 296 298 297 299 302 303 302 302
315 316 315 315 314 314 314 313 312 312 312 311 311 311 311 311 312 312 312 312 314 314 315 315 315 316 308 298 314 317 318 315 313 311 311 306 301 302 297 297 295 299 299 299 300 299 300
315 315 315 314 313 314 313 312 311 311 311 311 311 311 311 311 311 312 313 313 314 314 314 316 316 314 305 302 314 314 313 310 312 312 306 306 305 301 300 296 300 299 294 297 299 299 298
315 315 315 315 313 314 312 312 311 311 311 310 310 310 310 311 311 312 313 314 314 314 317 317 316 310 302 314 311 310 312 311 312 310 307 307 306 300 296 299 298 294 292 287 295 300 301
314 314 315 315 313 314 312 312 311 311 311 311 310 311 311 311 311 312 313 313 314 317 318 317 309 306 304 314 307 309 310 309 310 310 308 310 302 297 298 291 288 290 286 289 293 299 299
314 314 314 315 313 312 313 313 312 310 310 310 310 310 310 310 312 312 312 312 314 315 314 314 313 304 310 308 309 309 310 310 308 306 304 301 297 293 291 288 282 287 288 291 291 296 298
313 313 313 313 314 313 312 312 311 311 310 310 310 310 311 312 312 313 310 309 305 305 309 306 309 307 310 311 312 307 310 308 307 301 293 298 291 289 293 295 295 295 293 292 295 299 295
312 313 313 313 313 313 313 312 312 310 310 310 310 310 311 312 312 313 307 306 307 305 299 310 312 312 314 311 305 307 310 301 299 293 297 293 289 297 300 299 296 294 292 290 295 298 295
312 312 312 312 312 313 313 312 312 311 311 310 310 310 310 312 312 307 307 312 312 309 298 303 308 308 308 306 303 304 306 303 298 294 294 291 295 301 299 296 294 292 291 291 291 295 296
312 311 311 312 312 312 312 312 312 311 310 310 309 309 310 310 308 310 309 316 309 312 291 300 304 305 305 305 301 309 309 303 298 294 295 293 298 298 296 295 295 288 296 295 294 290 283
311 311 311 311 311 312 312 312 311 311 310 309 309 309 309 308 305 306 309 309 311 309 285 302 302 308 305 301 304 304 309 304 297 296 296 293 295 294 294 295 297 292 297 294 293 289 286
310 310 311 311 311 311 311 311 311 310 309 309 309 308 308 310 308 310 315 311 309 295 287 298 302 300 299 301 302 304 303 305 303 296 296 295 300 298 296 299 299 299 294 292 290 286 281
310 310 310 310 310 311 311 311 310 310 309 308 308 308 304 308 305 312 313 307 293 289 305 299 298 299 298 297 299 300 298 295 291 287 288 294 295 299 301 295 298 295 288 281 279 278 280
310 310 310 310 310 310 310 310 310 309 308 307 306 306 306 306 311 313 310 299 287 297 299 304 302 300 295 297 297 298 297 294 297 296 292 289 287 297 301 297 294 293 292 285 278 276 282
310 310 310 309 309 310 310 310 309 308 307 305 304 309 308 311 313 313 302 289 292 298 301 299 299 295 294 297 296 296 295 295 296 297 290 288 289 299 299 299 297 293 289 293 287 288 282
310 310 309 309 309 309 309 310 309 308 306 305 300 305 311 318 318 309 297 293 296 301 302 300 292 294 289 292 293 293 293 298 297 300 299 293 287 296 298 299 298 294 297 286 287 280 277
310 310 309 309 309 309 309 310 309 308 305 304 302 304 315 318 314 302 291 294 299 304 302 297 295 293 293 292 292 292 293 298 301 299 299 296 291 291 296 292 290 291 288 289 290 285 280
310 310 309 309 309 308 308 310 309 307 304 301 299 297 314 315 298 299 296 301 300 300 302 299 298 296 294 294 292 293 293 297 302 300 294 297 292 287 290 296 298 294 291 290 285 283 285
311 310 309 309 308 308 308 309 308 307 304 298 295 299 313 310 291 293 299 298 300 299 299 298 296 298 298 293 290 294 295 300 301 299 296 296 289 282 285 288 292 291 291 292 291 289 284
311 310 309 309 308 308 308 309 308 306 304 301 297 296 304 304 302 295 294 295 295 301 299 300 296 296 294 292 295 292 293 297 299 298 308 301 290 287 282 286 289 287 290 291 290 284 284
311 311 310 309 308 308 308 309 308 305 304 302 301 296 298 292 292 294 296 296 294 293 299 298 294 293 292 287 289 289 292 293 296 299 297 293 286 289 290 292 292 290 289 289 287 288 285
311 311 310 309 307 307 307 309 307 305 304 303 294 293 296 292 296 294 294 294 293 294 295 293 291 292 292 288 289 287 290 290 289 292 290 292 285 289 287 290 289 287 289 289 289 290 289
311 311 310 309 307 306 305 307 307 304 304 300 301 300 297 294 293 291 292 294 292 295 295 296 294 291 290 292 294 293 293 292 291 288 287 286 284 281 279 286 286 281 287 289 290 291 292
311 311 310 310 308 306 305 306 306 304 302 300 301 297 292 288 292 292 293 294 293 294 292 295 295 291 295 299 297 295 293 292 292 291 291 286 284 283 279 283 275 286 295 295 290 293 295
311 311 311 310 308 306 305 305 307 303 302 300 300 297 292 288 292 291 293 294 294 295 293 292 293 297 299 295 289 287 288 290 291 295 294 293 287 279 277 276 285 288 293 291 291 290 297
311 311 311 310 309 306 305 305 307 304 302 300 300 301 294 289 289 295 292 293 290 289 289 292 298 301 298 291 288 284 281 289 288 290 297 293 290 282 279 274 273 288 297 300 298 286 296
310 310 311 311 309 307 305 305 305 307 304 301 299 301 294 289 293 295 292 291 293 291 287 290 292 294 298 289 285 283 285 292 284 284 288 286 285 279 279 276 284 294 297 299 284 286 294
309 310 310 310 310 308 306 306 306 306 305 301 299 302 295 291 292 295 297 293 293 292 287 291 290 293 291 287 287 287 285 287 285 289 287 284 282 282 285 282 275 297 296 288 291 293 293
309 309 309 309 309 308 307 306 306 304 306 303 295 303 302 293 292 297 297 298 297 297 292 292 291 291 294 289 289 287 285 286 286 279 294 283 290 287 286 284 294 294 295 294 293 291 291

GFSGBSN_sfc_thetae_093.txt.gz
Theta_e
315 315 315 315 313 312 312 312 312 311 311 311 311 311 311 311 311 311 311 311 312 312 313 313 313 314 307 298 301 308 333 330 316 308 304 304 300 296 292 291 292 290 293 296 298 297 296
315 315 315 314 314 313 313 313 312 311 311 311 311 311 311 311 311 311 311 311 312 313 313 313 313 315 303 288 300 316 316 315 308 305 306 305 301 298 292 291 290 293 293 294 295 295 295
315 315 314 314 315 314 313 313 313 312 311 311 311 311 311 311 311 311 311 313 314 313 313 314 314 313 302 292 307 315 311 305 306 308 306 307 303 297 294 292 293 293 290 292 292 294 294
315 315 315 314 314 313 313 314 313 313 312 311 311 311 310 312 311 312 313 313 313 314 314 315 316 308 296 305 307 305 308 308 308 307 307 306 301 296 292 293 293 289 287 283 290 293 295
314 314 314 314 314 314 313 313 313 313 313 312 311 311 310 311 311 312 312 313 314 315 316 318 305 301 298 314 310 308 308 306 307 308 306 309 298 294 293 287 284 285 281 283 288 293 294
313 313 313 313 313 313 313 314 314 313 313 313 312 311 310 311 311 312 313 313 312 312 314 314 310 299 304 305 307 308 307 308 306 303 300 298 293 289 287 285 280 282 283 286 286 292 292
313 312 312 312 311 312 312 313 314 314 313 313 312 311 311 310 311 311 307 304 300 300 304 301 303 301 305 313 309 303 305 304 303 298 291 293 288 285 288 290 291 289 287 287 290 294 291
311 311 311 311 310 311 312 312 313 313 313 313 312 311 311 310 310 310 302 300 304 301 297 305 306 305 308 311 306 309 305 298 296 291 292 289 285 292 293 293 291 290 288 287 291 294 291
311 311 310 310 310 311 311 311 312 312 312 312 312 311 311 311 310 304 302 305 310 305 295 299 305 305 306 308 304 305 303 299 294 290 290 287 291 296 294 292 290 289 287 288 288 291 291
311 311 310 310 310 310 311 311 311 312 312 311 311 311 311 309 303 302 302 309 307 304 289 295 300 304 306 306 299 310 306 300 294 291 291 289 294 293 291 290 291 286 292 292 290 287 282
311 311 311 310 310 310 310 310 310 311 311 311 311 311 310 309 296 299 306 306 306 305 281 301 300 307 305 300 300 301 305 300 294 293 292 290 291 290 290 291 293 289 294 291 291 286 282
311 310 311 310 310 310 309 309 309 310 310 310 310 310 309 304 301 303 308 305 305 292 283 298 299 297 296 298 298 300 301 301 300 293 292 293 295 294 293 296 294 295 291 288 285 282 278
312 311 311 310 310 309 309 309 309 310 310 310 310 309 306 304 296 302 304 304 291 285 298 296 295 297 295 295 296 296 295 292 291 285 285 292 292 294 296 291 293 290 283 278 277 277 280
313 312 311 311 310 309 309 308 308 309 309 309 307 306 306 305 302 305 305 298 286 293 295 299 297 297 294 295 295 296 293 289 293 291 286 284 284 293 298 292 289 289 287 281 276 276 281
313 312 311 311 310 309 308 308 307 308 308 307 305 299 303 306 306 304 300 289 290 296 296 295 296 291 291 294 293 292 290 291 293 292 286 284 286 296 297 298 295 290 286 290 284 283 280
313 312 312 311 310 309 308 307 308 308 308 306 299 299 305 306 306 305 293 289 295 298 299 297 289 292 287 290 291 291 290 296 296 297 294 290 283 293 296 298 297 293 295 284 283 279 277
313 313 312 311 310 309 308 308 308 308 306 305 297 298 307 310 308 299 288 292 297 301 300 296 293 291 291 289 290 290 292 296 299 297 297 291 287 288 293 291 290 290 289 290 289 286 281
312 312 312 312 311 309 308 307 307 307 305 300 294 292 303 308 297 294 292 295 298 298 301 298 299 296 293 292 290 290 291 294 297 296 292 295 290 284 288 294 297 294 290 291 284 283 285
313 312 312 312 311 310 308 307 307 307 305 297 290 292 305 304 289 288 293 294 297 296 296 297 295 295 294 290 286 290 292 296 297 295 294 293 287 281 284 288 293 290 292 291 289 286 280
313 312 312 312 312 310 307 307 307 307 305 295 292 289 293 296 294 291 289 291 292 298 297 297 296 296 292 290 292 288 289 295 296 295 300 296 289 287 282 285 290 287 290 291 289 283 282
312 313 313 312 312 311 308 307 307 307 305 297 291 287 290 285 289 290 292 292 291 291 296 297 294 293 291 286 287 287 291 291 294 296 295 292 284 286 288 288 289 289 288 288 286 286 281
312 312 312 312 312 311 309 306 307 306 305 296 289 288 291 289 291 290 290 289 290 293 292 291 291 292 291 289 289 286 289 289 288 292 290 290 282 287 284 287 287 285 287 287 286 286 284
311 311 312 312 312 311 309 305 307 306 302 294 293 293 293 293 291 289 287 291 290 292 293 296 294 291 289 292 294 293 293 292 291 289 287 285 283 282 279 284 284 279 284 286 286 290 288
311 311 312 312 312 311 309 306 306 305 302 296 293 291 290 288 291 289 291 291 290 292 291 293 294 290 295 297 294 294 291 291 291 290 291 284 283 282 279 281 274 283 294 293 291 292 294
311 311 311 311 312 312 310 306 305 305 303 298 297 295 291 287 291 289 291 290 291 293 291 291 292 294 294 291 285 283 285 288 289 292 288 288 284 280 277 276 282 286 293 290 288 288 293
311 311 311 311 311 311 311 307 305 306 304 298 298 299 293 289 288 292 289 291 288 289 290 291 294 294 291 289 284 280 278 286 287 290 294 290 288 282 276 276 272 283 293 296 295 284 292
309 310 310 310 311 311 312 309 306 305 306 299 297 300 294 289 292 292 288 287 289 291 288 290 289 289 292 286 282 280 283 290 283 284 286 284 280 279 282 279 281 292 294 296 282 281 289
307 307 308 309 310 310 311 311 308 306 306 300 295 299 295 291 292 295 294 289 289 291 286 290 286 291 287 284 286 285 283 286 284 288 287 281 283 281 283 281 278 294 291 284 286 289 290
306 307 308 309 309 310 310 311 309 308 306 304 296 301 301 293 292 295 296 296 294 294 291 292 287 288 289 288 287 286 282 284 283 279 290 281 286 280 284 282 289 291 289 291 291 291 291

GFSGBSN_sfc_thetae_096.txt.gz
Theta_e
316 315 316 315 314 313 313 313 312 312 312 312 311 311 311 311 311 311 311 311 311 312 312 313 312 313 305 293 295 310 329 330 313 305 301 303 299 295 291 288 290 288 291 294 296 295 294
315 316 315 315 314 314 313 313 313 313 312 312 312 312 311 311 311 311 311 310 311 312 312 312 312 313 301 284 296 313 320 311 306 303 304 303 299 298 292 290 289 292 291 292 293 294 293
315 315 315 314 315 314 313 314 314 314 314 313 313 312 311 311 311 311 312 312 313 313 312 313 313 312 300 290 305 312 311 304 306 305 304 305 303 295 293 290 292 291 288 290 292 293 293
314 314 314 314 314 313 313 313 313 313 314 314 314 312 311 311 312 312 312 312 313 314 314 313 315 306 295 302 306 307 306 304 306 305 304 304 299 294 291 291 291 287 285 282 289 292 294
313 313 313 313 313 313 312 312 313 313 313 314 314 313 312 311 312 312 313 313 314 315 315 317 304 298 298 313 308 310 307 303 306 306 305 309 297 292 292 286 283 284 279 281 287 291 291
312 312 312 312 312 312 312 312 312 313 313 314 314 313 312 312 311 311 311 312 314 314 314 313 310 297 302 302 308 307 305 306 304 303 298 296 291 288 285 284 278 280 281 284 285 290 289
311 311 311 311 310 311 312 312 312 313 313 313 313 313 312 312 312 311 306 303 299 297 303 299 300 298 303 310 310 302 305 304 302 297 290 291 287 284 287 288 289 288 285 285 289 293 289
311 311 311 310 309 309 311 311 311 311 312 313 312 312 312 312 312 310 302 299 302 302 296 304 304 303 306 308 302 306 303 297 295 290 291 288 285 290 291 291 289 288 286 285 289 292 289
311 311 311 310 309 310 311 311 311 311 311 312 311 311 312 312 310 304 301 303 308 303 294 298 303 303 303 306 301 303 300 297 293 289 288 286 289 293 292 290 288 287 285 286 287 290 289
312 312 311 311 311 310 310 310 310 310 311 311 311 311 311 310 302 301 300 308 305 303 289 293 298 303 305 305 299 308 303 299 292 290 290 288 292 291 289 288 289 284 291 291 289 285 281
313 313 312 311 311 310 310 309 310 310 310 310 310 310 310 309 300 298 304 305 305 304 280 297 298 306 304 300 299 300 304 298 293 292 291 289 289 288 288 290 291 288 292 290 289 285 281
313 312 312 311 311 310 309 309 309 309 309 310 310 310 309 304 302 303 305 305 306 292 282 296 298 297 297 299 298 299 299 300 298 292 290 291 293 292 291 294 293 294 289 287 283 281 277
313 313 312 312 311 310 309 308 308 308 308 309 309 309 306 305 297 302 302 304 291 286 297 294 295 297 295 294 296 296 294 292 289 284 285 290 291 293 294 290 293 290 283 277 276 277 280
313 313 313 312 311 311 309 308 308 308 308 308 307 306 304 304 303 303 304 298 286 293 291 298 296 296 292 294 294 295 293 289 293 290 285 283 284 292 296 292 288 287 285 279 275 275 280
314 313 313 312 312 311 309 308 307 307 307 306 305 297 300 305 306 304 300 289 289 293 296 294 295 291 291 294 293 293 291 291 293 291 286 283 285 295 297 297 294 290 286 290 283 281 278
313 313 313 312 312 311 310 308 307 307 307 306 295 295 304 305 306 303 292 289 294 298 299 297 290 292 288 290 291 290 291 296 296 297 295 289 283 292 295 296 296 293 294 285 285 278 276
313 313 313 313 312 311 310 308 307 307 306 304 294 297 303 306 307 299 289 291 297 300 300 296 293 292 293 291 290 291 292 295 296 295 295 292 288 288 293 290 289 290 289 289 288 286 280
313 313 313 313 312 311 310 308 307 306 305 300 292 290 302 305 296 293 290 294 297 297 300 298 298 295 293 293 290 290 290 294 297 296 291 293 290 285 287 295 297 295 291 290 284 283 286
313 313 313 312 312 311 310 308 307 307 305 296 289 290 302 301 288 287 292 294 296 295 296 296 295 295 294 290 287 290 291 295 296 294 292 292 287 281 283 287 293 290 292 291 290 287 282
313 312 312 313 312 311 310 308 306 306 305 295 290 286 291 292 291 288 288 290 291 298 296 296 295 296 292 289 292 288 290 295 297 295 299 295 289 284 280 286 289 286 289 291 289 283 282
312 313 312 312 312 312 311 308 306 306 305 296 290 286 289 283 287 287 287 290 289 290 294 295 293 293 291 287 287 287 290 292 294 296 294 292 285 287 288 288 289 287 286 287 286 287 281
312 312 312 312 312 312 311 307 306 306 304 294 289 288 290 287 293 290 287 286 289 291 291 290 289 293 291 287 288 287 289 289 288 290 289 291 283 286 283 286 286 284 287 287 287 286 285
311 311 311 312 312 312 311 308 306 306 301 294 291 291 290 289 291 289 289 290 289 291 292 294 293 291 288 290 293 293 293 292 290 287 285 284 284 281 278 284 283 280 284 285 286 288 287
311 311 311 312 312 311 311 308 305 305 302 297 293 290 287 284 289 288 289 291 290 290 289 293 293 289 292 293 292 291 289 289 289 289 290 283 281 281 278 281 274 284 293 292 290 291 293
309 309 311 311 311 311 311 309 305 305 303 297 295 294 291 287 287 289 289 289 289 289 288 289 291 292 291 289 284 282 284 285 287 291 287 288 282 277 277 276 281 285 291 289 287 287 292
309 309 311 310 311 311 311 311 306 306 304 296 297 298 293 287 286 291 288 288 287 288 287 290 293 293 288 285 285 280 278 283 285 289 292 288 287 282 279 273 274 283 293 294 293 282 291
309 309 308 308 310 311 311 312 308 306 306 300 298 297 293 289 289 289 289 287 290 288 287 290 289 288 289 286 282 280 281 288 281 283 285 284 282 279 278 276 282 291 293 295 281 280 289
307 307 307 308 308 310 311 311 310 307 306 301 297 299 295 291 292 294 295 291 290 290 285 290 288 289 285 285 286 285 282 286 284 288 287 284 283 281 283 277 275 293 291 285 286 288 289
306 306 306 307 309 310 310 311 311 308 307 304 296 301 301 292 292 295 297 298 296 295 291 291 289 287 289 287 288 285 282 284 283 280 290 281 285 281 282 280 288 290 289 291 290 290 292

GFSGBSN_sfc_thetae_102.txt.gz
Theta_e
316 316 316 315 314 314 314 315 315 314 314 314 314 313 312 311 312 311 311 311 311 311 312 313 313 312 313 305 303 324 330 325 323 315 308 308 307 306 302 304 305 302 304 305 306 306 305
314 315 315 314 314 314 314 314 314 315 315 315 315 314 313 313 312 312 311 311 311 311 312 313 312 312 310 297 309 323 318 322 319 314 308 312 308 308 305 303 303 305 305 304 305 306 306
314 314 314 314 314 314 313 312 313 314 314 315 315 314 314 313 313 312 312 312 311 311 313 312 312 314 307 302 312 322 319 316 314 310 311 313 311 307 306 303 306 304 301 304 305 306 305
314 313 313 313 314 313 311 312 313 313 314 314 315 314 314 314 314 313 313 312 312 312 313 313 314 315 305 309 312 317 320 311 313 315 314 313 311 308 306 306 303 301 301 298 304 303 304
313 313 313 313 314 313 312 311 312 312 312 313 314 313 313 313 314 314 313 311 312 313 314 315 314 312 304 316 308 313 320 310 311 312 313 312 311 306 304 301 299 300 295 297 299 303 302
313 313 312 313 313 312 312 312 312 312 312 312 313 312 313 313 313 313 312 314 314 315 317 317 314 308 312 305 309 312 318 312 310 309 308 308 306 302 302 299 293 295 295 296 296 301 302
313 313 313 313 313 312 312 312 312 311 312 311 312 312 312 312 312 312 311 316 313 311 313 309 309 306 307 313 315 311 315 311 311 308 301 304 300 297 300 301 300 298 296 296 299 302 301
314 314 314 314 312 312 312 312 312 311 311 311 311 311 312 312 312 310 312 310 311 312 304 311 311 311 312 312 306 309 314 306 305 301 304 300 296 301 302 301 298 297 296 297 300 302 301
314 314 314 314 313 313 313 312 312 311 311 310 310 310 311 311 310 310 310 311 316 315 305 305 308 307 309 311 306 308 310 307 303 301 301 298 299 301 300 299 297 297 296 297 297 300 302
315 314 314 314 313 313 313 313 312 312 311 310 309 310 310 309 308 313 309 315 316 314 298 300 303 307 308 310 304 312 311 307 303 299 301 300 303 300 299 297 299 295 300 299 298 297 293
315 315 315 314 313 313 313 313 312 312 311 310 309 310 310 308 311 310 313 317 317 313 287 303 303 313 308 304 306 307 312 307 301 300 300 297 298 297 297 298 300 297 300 299 298 297 297
315 315 314 314 314 313 312 312 312 312 310 309 309 310 308 310 312 312 315 314 315 299 286 298 303 301 301 304 302 305 306 308 306 301 301 300 304 301 301 301 301 302 299 300 300 298 291
315 315 314 314 314 314 313 312 312 312 310 309 309 308 309 313 308 313 314 313 299 292 300 296 297 299 300 298 300 301 301 300 297 294 295 299 300 303 303 299 302 301 297 291 290 291 290
315 315 314 314 314 313 313 312 311 310 309 308 307 306 308 314 316 314 314 305 291 295 296 301 300 299 295 298 298 299 297 296 301 299 296 293 291 299 302 300 298 299 299 292 285 287 291
315 314 314 315 314 313 313 311 311 309 307 307 305 316 316 315 318 318 310 296 296 297 299 297 298 295 295 298 299 299 298 297 298 300 293 293 293 300 300 302 301 298 296 300 294 295 291
314 314 314 314 313 313 312 311 311 309 307 306 310 314 312 316 319 316 303 295 298 301 301 300 293 295 292 294 295 296 295 300 298 300 302 297 291 300 302 303 302 299 302 293 294 286 285
314 314 314 313 312 312 312 312 311 309 306 305 311 310 313 317 318 309 300 299 300 303 303 298 296 296 296 295 297 296 296 300 301 299 300 298 295 295 299 296 295 296 295 296 295 294 287
313 313 313 313 312 312 312 311 310 307 305 307 310 305 314 317 307 308 303 299 298 301 303 301 301 300 297 297 295 295 295 298 302 301 296 299 295 291 294 301 302 300 297 296 289 290 294
313 313 313 313 312 312 311 311 310 307 305 308 306 306 314 314 302 303 301 299 300 299 300 299 298 299 300 297 292 296 297 300 300 299 295 298 292 288 290 296 299 296 298 298 296 292 288
313 313 313 313 312 312 311 311 309 306 305 308 306 302 305 308 306 301 298 298 298 301 299 300 300 300 297 295 297 292 295 298 300 299 299 298 294 292 286 291 294 291 294 296 294 287 289
312 312 312 312 312 312 312 311 309 306 305 308 305 299 300 298 299 299 299 297 295 295 299 300 297 296 295 291 291 291 293 295 297 299 298 296 287 292 292 293 293 292 292 294 291 292 287
311 311 311 311 312 312 312 311 308 306 304 309 303 301 304 301 298 297 294 295 293 294 295 295 294 295 295 290 291 291 293 294 293 296 296 296 290 291 289 292 291 289 292 292 292 292 293
311 310 310 311 312 312 311 311 307 306 306 308 308 307 303 295 297 297 297 294 294 296 297 298 296 294 294 294 298 298 299 299 297 293 293 293 291 288 285 290 290 287 292 293 294 295 294
310 310 310 309 311 311 311 311 307 306 305 309 307 306 301 296 298 295 294 295 294 295 293 297 298 294 298 301 301 301 300 298 298 297 296 291 290 288 286 288 280 292 298 297 295 296 297
311 310 309 310 309 310 311 311 307 305 304 309 309 305 301 296 298 295 294 293 294 296 295 295 297 299 302 298 293 292 293 294 295 297 296 295 290 287 284 284 289 292 294 295 294 294 299
310 309 309 308 308 308 310 311 311 306 304 308 306 310 304 297 296 296 294 293 291 292 294 294 299 303 301 296 291 285 284 288 288 290 296 295 292 288 287 281 280 292 297 300 299 289 300
308 308 308 307 307 308 308 310 312 308 306 307 307 310 305 298 301 300 293 292 295 292 289 293 294 295 299 291 288 287 287 292 286 286 286 288 288 286 285 285 289 296 298 299 287 290 299
307 307 307 307 307 307 309 310 311 310 307 305 306 308 303 298 299 301 301 296 294 292 288 292 292 294 292 288 290 289 290 291 289 291 289 287 286 286 287 285 282 299 298 291 298 301 299
307 306 306 306 307 307 308 310 311 311 308 306 303 305 306 297 301 306 305 304 302 300 294 294 293 291 295 290 290 292 289 291 290 285 294 287 291 290 291 292 298 302 300 303 303 298 300

GFSGBSN_sfc_thetae_105.txt.gz
Theta_e
315 315 315 315 314 314 314 314 315 315 315 315 315 315 315 314 313 313 312 312 312 312 312 313 314 314 313 309 307 329 329 325 318 318 311 310 308 308 305 307 308 306 307 309 309 309 309
315 315 315 315 314 314 314 314 314 315 315 315 315 315 315 314 314 314 313 313 312 312 312 313 313 313 312 302 313 324 317 317 315 317 312 311 310 311 308 307 307 308 307 308 308 308 308
314 314 314 315 315 315 314 313 313 314 314 315 315 315 314 314 314 314 314 314 313 312 313 314 314 314 310 307 313 323 319 318 321 317 309 314 314 310 310 306 309 308 304 306 307 308 307
314 314 313 314 315 314 313 312 312 312 313 314 314 314 314 314 314 314 314 314 313 313 314 315 314 317 310 314 314 319 320 316 316 315 316 316 315 311 309 310 306 304 304 300 306 307 308
314 314 314 314 315 314 313 312 312 312 312 313 313 313 313 313 313 314 313 313 313 314 315 316 315 316 311 313 307 315 321 311 312 315 316 314 313 308 308 303 301 303 297 300 302 307 305
315 315 315 315 315 314 313 313 313 312 311 312 312 312 312 312 312 313 313 313 315 314 316 320 318 311 315 308 310 311 322 316 311 311 310 309 308 304 304 302 294 298 299 300 300 305 304
315 315 315 315 315 314 314 313 314 313 312 311 312 311 311 312 312 312 311 317 315 314 316 313 313 311 309 314 312 311 317 313 311 308 303 307 302 299 302 304 303 302 300 299 302 305 302
315 315 315 315 314 314 314 314 314 314 313 313 312 311 311 311 311 311 313 309 313 315 306 315 314 313 313 314 306 309 316 307 307 302 305 303 299 304 306 305 302 301 298 299 302 305 304
316 315 315 315 314 314 314 314 314 314 313 313 312 311 311 311 311 310 313 310 319 317 305 307 309 309 311 313 307 307 312 309 305 303 304 301 303 305 303 302 300 300 299 299 299 303 304
316 316 315 315 314 314 314 314 314 314 314 312 311 310 310 310 307 318 312 316 320 318 301 302 305 308 310 311 305 314 313 309 306 302 304 304 306 303 302 299 301 297 303 301 299 298 294
316 316 316 315 314 314 314 314 314 314 313 312 311 310 310 308 315 312 315 321 321 317 292 305 305 314 311 306 307 307 314 309 303 303 302 301 302 300 299 300 303 299 303 301 300 299 298
316 316 315 315 315 314 314 313 313 313 312 311 310 310 309 310 314 317 319 320 318 302 290 301 305 304 303 304 303 307 308 310 307 302 304 302 306 303 303 304 303 304 301 301 301 299 293
315 316 315 315 315 314 313 312 312 313 312 310 310 309 310 317 312 316 319 314 302 294 303 299 300 303 302 301 302 303 302 301 298 295 295 299 301 304 305 300 304 303 299 292 291 292 291
316 315 315 315 314 313 313 312 311 311 311 309 307 306 312 317 319 317 315 306 294 299 299 303 302 301 298 301 300 300 299 297 302 300 296 294 293 301 304 301 299 300 299 291 285 288 292
315 315 315 315 314 313 313 311 311 310 309 307 305 320 320 320 322 320 312 298 299 299 302 300 301 298 298 300 300 301 299 298 300 302 295 294 295 304 304 305 303 299 296 301 295 297 293
315 315 315 314 313 313 313 312 311 311 308 306 313 318 315 322 325 318 308 295 302 304 303 302 295 299 295 298 298 298 298 302 300 303 304 298 293 301 303 305 306 301 303 293 295 287 287
314 314 314 314 313 312 312 312 311 310 307 305 316 313 318 324 323 312 302 302 302 306 305 301 298 296 297 296 298 296 297 302 303 302 304 301 297 296 300 299 297 298 296 297 297 295 289
314 314 314 314 313 312 312 312 311 309 305 310 316 309 319 321 308 310 305 304 298 303 305 303 303 301 297 298 297 296 297 299 304 304 298 300 297 293 296 302 303 301 298 297 290 291 294
313 313 313 313 312 312 311 311 311 309 306 310 310 311 320 318 304 304 305 302 303 302 302 302 301 302 302 299 294 298 298 303 303 301 298 302 295 290 293 299 302 297 299 299 298 297 292
313 313 313 312 312 312 311 311 311 308 306 309 310 305 309 315 312 305 302 301 300 304 303 303 302 303 300 296 299 297 297 300 302 300 301 300 296 291 288 293 295 292 296 297 296 292 292
313 312 312 312 312 312 312 312 311 307 306 310 311 305 305 303 303 303 302 301 298 297 302 303 300 299 297 294 296 295 298 299 298 301 299 298 291 294 294 294 295 295 294 295 292 294 290
313 312 311 311 312 312 312 312 310 307 305 312 305 304 307 305 302 301 295 300 297 298 298 298 297 299 298 296 297 295 295 296 296 299 297 300 290 294 291 294 294 292 295 295 295 295 294
312 311 310 310 311 311 312 312 310 307 306 311 312 311 306 298 301 300 302 299 297 299 300 301 300 298 297 298 301 302 302 302 300 296 294 294 291 291 288 293 293 288 293 295 295 297 296
312 311 310 310 310 310 311 312 310 308 306 312 309 308 304 302 300 300 297 298 298 298 297 300 301 298 301 306 305 304 302 301 300 297 298 292 292 291 288 290 282 294 300 298 296 298 299
312 311 310 309 309 309 310 312 311 308 307 311 312 308 305 300 302 299 298 296 298 300 299 299 300 302 306 302 296 295 296 296 297 298 297 299 293 287 286 287 291 294 297 297 295 295 301
311 311 310 309 309 308 309 310 311 308 307 310 313 312 308 300 301 301 298 298 296 297 298 297 302 305 303 298 293 288 287 291 291 293 300 299 296 289 288 284 283 294 298 302 301 291 301
310 308 308 308 308 308 308 310 312 310 307 308 310 315 306 300 304 302 297 294 298 298 294 296 297 299 301 293 289 289 288 295 289 289 289 291 290 285 287 286 291 299 300 301 289 291 300
307 307 307 307 307 307 308 309 311 311 308 308 308 314 307 302 303 303 301 297 296 297 292 298 297 296 294 290 290 292 291 294 292 294 292 290 289 288 290 286 284 302 300 293 298 303 302
307 307 307 307 307 307 308 308 311 311 309 306 306 310 309 301 304 308 307 308 304 303 298 297 298 295 295 294 296 294 290 294 292 287 297 290 294 290 291 293 300 302 302 302 302 301 301

GFSGBSN_sfc_thetae_111.txt.gz
Theta_e
315 315 315 315 315 315 316 315 315 314 315 314 313 314 314 314 315 314 314 314 314 314 313 312 313 314 310 303 301 320 333 331 316 306 302 301 301 299 294 297 299 297 300 304 306 305 302
316 316 316 316 316 316 316 315 315 314 314 314 314 313 313 313 314 314 314 315 315 314 313 312 313 314 306 295 316 322 315 313 308 302 304 303 304 304 299 298 296 300 301 302 303 303 302
317 317 316 316 316 316 316 315 315 315 315 314 314 314 313 312 313 313 314 315 315 315 315 314 314 313 304 303 318 317 312 305 308 307 306 309 309 302 301 298 302 302 297 300 301 301 300
317 317 317 317 316 316 315 314 314 314 315 315 314 314 314 313 312 313 313 313 314 314 315 315 315 310 302 316 313 310 310 309 310 309 309 313 309 302 301 303 302 297 295 289 297 302 303
317 318 317 317 316 316 316 315 315 315 315 316 315 314 314 313 312 312 312 312 313 316 315 315 310 306 305 316 308 311 312 309 312 314 313 314 307 302 303 295 292 293 288 291 295 302 302
317 317 317 317 317 316 316 315 315 316 316 315 315 314 314 314 312 312 312 312 314 315 313 315 313 304 310 310 312 310 308 314 310 306 305 306 300 296 294 290 285 289 290 293 294 300 300
317 317 317 317 317 317 316 315 315 315 314 314 315 315 314 313 312 311 309 308 308 305 309 306 307 307 312 316 310 306 308 312 308 303 296 300 293 289 293 296 297 296 295 293 296 300 297
317 317 317 317 317 316 316 315 315 315 314 313 314 314 314 313 312 311 307 303 309 308 303 312 312 312 316 315 305 304 308 306 303 295 299 296 291 298 301 300 298 297 294 293 297 300 297
317 317 317 317 317 316 315 315 313 313 312 312 312 313 313 312 311 307 304 306 313 312 301 305 311 312 311 310 306 304 306 306 302 297 296 293 297 303 301 299 297 295 293 294 294 298 298
317 317 317 316 315 315 315 314 313 313 312 313 312 312 312 311 305 307 305 311 311 312 295 302 303 306 308 308 304 312 309 305 301 296 297 296 301 301 299 298 298 292 299 298 297 293 288
317 317 317 316 315 314 314 314 314 314 313 312 312 313 312 310 304 308 314 315 313 309 286 303 304 312 308 303 306 306 311 306 300 299 298 296 298 297 296 299 300 295 300 297 297 292 288
317 317 316 316 315 313 313 313 313 313 313 312 312 312 311 309 305 308 315 314 309 294 289 302 304 302 301 303 304 306 307 308 306 299 299 298 303 301 299 302 302 302 297 295 293 289 284
316 316 316 315 315 314 313 313 313 313 312 312 312 312 307 310 309 315 312 308 294 290 304 300 299 301 300 300 301 302 301 298 295 291 291 296 297 301 303 297 299 297 290 283 281 282 282
316 316 315 315 313 314 313 312 312 311 311 311 310 308 308 311 315 314 309 298 290 299 301 305 303 302 298 301 300 300 299 294 299 296 292 291 290 299 304 300 295 296 292 285 279 280 285
315 315 315 315 314 314 313 312 311 311 310 310 307 312 311 315 316 313 304 292 296 301 304 301 301 298 298 300 300 300 297 297 300 298 290 290 293 303 304 304 302 296 291 297 289 290 285
315 315 315 314 314 313 312 311 311 311 310 308 302 307 313 318 317 311 302 299 302 304 304 303 296 299 296 298 298 297 297 303 301 303 301 296 289 299 302 303 302 299 301 290 291 284 280
314 315 314 314 313 312 312 311 311 311 308 307 306 307 313 318 318 306 297 300 302 305 305 301 298 297 297 296 297 296 296 301 303 302 302 297 293 293 298 294 293 293 291 294 293 290 284
315 314 314 313 312 311 311 311 311 310 306 306 306 304 316 318 303 306 300 305 301 303 306 303 303 301 298 298 296 296 296 300 304 302 296 298 293 288 291 298 299 296 293 295 288 288 289
314 314 314 313 312 311 311 311 311 310 307 302 300 307 315 315 299 301 306 303 303 302 303 302 301 302 301 296 292 298 299 304 303 302 297 296 289 282 285 289 297 294 294 295 294 293 288
314 314 314 313 312 311 311 310 311 309 308 304 302 301 306 309 307 301 300 301 300 305 301 302 300 301 297 295 296 293 297 302 302 301 304 300 290 286 280 286 290 289 292 294 293 286 287
313 314 314 313 312 311 311 310 311 309 308 304 304 302 302 297 300 299 298 300 298 298 302 301 298 299 295 290 293 292 297 298 301 303 298 293 285 289 291 293 293 291 291 291 288 290 286
312 313 314 313 311 311 310 310 310 309 308 306 301 299 301 300 302 299 296 297 298 299 298 298 296 299 296 290 292 290 293 292 293 297 295 296 285 290 288 292 292 290 293 293 293 293 292
311 312 313 313 311 311 310 310 310 309 308 305 307 306 303 300 301 297 298 299 299 299 301 300 298 295 294 296 297 296 296 296 295 292 291 291 288 287 282 290 289 283 290 292 294 296 294
310 310 312 312 311 310 310 309 310 310 309 306 306 305 300 296 300 298 300 300 298 298 296 298 298 293 299 302 300 298 297 297 297 295 295 292 288 288 283 285 277 289 297 298 295 296 298
310 311 312 311 310 310 309 309 310 310 311 307 308 305 301 295 299 300 300 298 297 298 296 297 299 301 301 297 291 289 289 291 295 297 296 295 290 286 280 279 286 290 296 295 293 292 298
310 311 312 310 309 309 309 309 310 311 310 308 309 311 304 297 297 301 298 299 293 293 296 298 302 302 298 293 289 282 280 288 288 293 299 297 295 288 282 279 278 290 299 300 298 285 298
310 309 308 308 309 309 308 308 309 311 311 308 307 312 305 297 301 301 296 294 297 295 291 294 297 297 297 288 285 282 283 292 284 287 286 289 289 285 285 283 285 297 300 301 287 287 297
308 308 307 307 307 308 308 309 309 311 311 307 307 311 304 298 301 304 303 297 296 294 288 293 293 295 292 286 285 286 285 289 287 291 290 288 286 284 286 282 280 300 299 292 296 298 298
306 306 307 307 307 307 308 309 309 310 311 308 304 310 307 299 299 305 306 306 302 301 295 294 294 293 293 291 289 288 286 287 286 280 293 286 291 289 290 288 298 300 297 300 299 298 297

GFSGBSN_sfc_thetae_114.txt.gz
Theta_e
317 317 317 317 316 316 316 316 315 315 315 315 314 314 313 313 313 314 314 314 314 315 314 312 311 312 308 300 298 309 336 330 323 307 301 298 295 296 291 293 294 292 297 300 303 303 301
317 317 318 317 316 316 316 316 316 315 316 315 315 315 314 314 313 314 314 313 313 314 314 313 311 312 304 290 306 320 321 319 311 302 300 299 300 302 297 296 294 297 297 299 300 301 299
318 318 318 318 317 316 316 316 316 316 316 316 316 316 315 315 314 313 313 314 314 314 314 314 312 312 304 299 314 315 310 305 305 304 302 303 303 302 299 296 298 297 293 297 298 299 298
318 318 318 318 317 317 316 316 316 316 315 315 316 315 316 315 315 314 313 313 313 313 314 314 314 309 299 313 310 307 308 305 306 305 304 308 307 302 298 300 299 294 292 288 295 299 300
318 318 318 318 317 317 317 316 316 316 315 314 315 315 315 315 314 313 313 312 313 315 315 314 308 303 301 319 313 312 309 306 307 306 305 309 305 300 300 294 289 290 286 289 294 298 297
318 318 318 318 318 317 316 316 316 316 315 314 314 314 314 315 314 313 312 311 312 314 313 313 312 301 307 309 310 308 309 309 307 307 304 303 297 294 292 289 284 287 287 290 291 296 296
318 318 318 317 318 317 316 316 316 315 315 313 313 313 313 314 314 312 307 303 306 304 306 301 303 305 309 316 313 307 306 305 307 300 293 298 292 288 292 293 294 293 291 290 294 298 294
318 318 317 317 318 317 316 315 313 314 313 313 313 312 312 313 313 311 307 299 308 308 301 309 309 307 313 315 304 302 305 300 299 292 296 293 289 295 297 296 295 294 291 290 293 298 295
318 317 318 317 317 316 315 314 314 314 314 314 313 313 313 313 311 306 301 303 309 308 298 304 310 309 311 309 305 299 302 303 299 294 293 290 294 300 298 296 295 294 291 291 292 296 295
317 317 317 316 315 315 315 314 315 314 314 313 313 312 312 311 305 304 301 308 308 308 294 301 303 309 309 306 302 309 304 305 300 295 295 293 298 297 296 295 296 292 297 296 294 291 285
317 317 317 316 315 314 313 314 314 314 313 313 312 312 311 311 301 301 310 309 307 305 286 302 303 309 306 302 304 304 307 303 297 297 295 293 295 295 294 295 297 293 298 295 295 289 286
317 317 316 315 315 314 313 313 313 313 312 312 312 313 311 305 305 304 308 307 307 294 288 301 303 301 300 302 303 304 305 305 304 298 297 296 300 298 297 300 299 300 295 292 290 287 281
316 316 316 315 314 314 313 313 312 312 312 312 312 312 308 307 302 309 307 305 292 288 304 300 297 299 298 298 300 302 300 297 293 288 288 294 294 297 301 296 299 296 288 282 280 280 281
315 315 315 314 314 313 313 312 311 311 311 311 310 308 306 308 306 308 305 296 287 298 300 306 301 299 295 298 298 299 297 293 298 295 290 288 288 297 302 297 293 293 289 282 278 278 282
314 314 315 315 314 313 312 311 310 310 310 309 307 304 306 309 310 308 301 291 295 299 305 301 301 297 296 300 298 297 294 294 296 296 289 288 291 301 302 302 298 294 290 293 286 287 282
314 314 315 314 313 312 312 311 311 311 310 308 300 302 306 314 313 308 300 298 301 306 304 302 294 298 295 297 296 295 296 301 300 301 297 294 287 297 300 300 300 295 298 287 286 278 278
314 314 314 313 312 312 311 311 311 311 309 307 302 304 312 314 311 302 295 298 303 304 304 300 297 295 295 294 295 293 295 300 302 300 300 295 291 292 296 293 290 290 288 291 291 290 283
313 314 314 313 312 311 310 311 310 310 307 303 299 300 312 313 301 303 299 304 302 302 304 302 301 299 296 296 294 294 295 299 302 301 295 295 291 286 290 296 297 293 290 291 285 286 290
312 313 314 313 312 311 310 310 310 310 307 300 295 299 311 310 296 298 302 303 303 301 301 300 299 300 299 294 289 296 297 301 303 301 296 294 287 281 283 287 292 291 292 292 292 289 286
311 312 313 314 312 311 310 310 309 309 308 302 297 296 300 304 303 299 297 298 299 303 300 300 298 298 295 293 293 291 297 301 302 300 305 298 288 285 279 283 287 287 290 291 291 285 285
309 311 312 313 312 311 310 310 309 308 308 302 299 298 298 294 296 295 294 296 298 296 299 299 296 296 293 288 290 290 294 295 299 305 295 291 283 287 288 290 291 290 290 290 287 287 284
309 310 311 312 313 311 310 309 309 309 308 302 296 295 299 295 299 296 294 295 296 297 296 295 294 296 294 289 289 288 290 290 290 295 291 291 283 288 287 291 291 288 290 290 291 291 290
308 309 310 311 312 311 310 309 309 309 307 299 301 302 298 297 296 293 294 296 297 297 297 298 295 293 292 293 294 293 293 294 293 291 289 288 286 283 281 288 287 282 287 289 291 294 292
309 309 310 311 312 310 310 308 309 310 308 301 301 300 294 293 296 296 298 298 296 295 293 296 295 292 296 298 296 294 292 293 293 292 292 288 286 287 282 283 276 286 295 298 295 296 296
310 310 311 311 310 310 309 308 309 310 310 301 303 301 296 291 296 298 298 295 295 295 293 294 297 298 297 294 288 285 286 288 292 293 291 293 289 284 279 277 284 288 295 293 290 290 297
309 311 309 309 309 309 309 308 309 310 310 302 303 305 299 292 293 300 295 296 290 289 292 295 297 298 296 290 287 280 278 286 286 291 295 293 294 287 284 279 276 288 298 300 297 285 299
307 308 308 308 308 308 308 309 309 310 311 304 302 305 300 292 298 298 293 292 294 290 288 291 293 293 293 285 282 279 281 290 281 285 284 289 288 285 285 282 285 295 298 301 282 285 298
306 306 307 308 307 308 308 309 309 310 311 304 301 304 299 293 297 300 300 294 294 289 286 290 290 291 288 283 283 283 282 286 284 288 287 286 285 284 285 283 281 298 297 290 292 295 297
305 306 306 307 307 307 307 307 308 310 310 307 299 305 304 295 294 301 302 301 299 297 291 289 289 291 289 285 285 284 283 283 282 277 291 281 287 287 288 288 297 299 296 297 297 295 296

GFSGBSN_sfc_thetae_117.txt.gz
Theta_e
318 318 319 318 317 317 316 316 315 315 315 315 316 316 316 315 314 314 314 313 313 313 313 313 312 311 306 297 294 302 335 327 320 312 301 298 294 294 291 293 293 290 295 298 300 300 299
319 319 318 318 317 317 316 316 316 316 316 316 315 315 316 316 315 314 314 313 313 312 313 314 312 311 302 288 300 314 320 318 313 303 300 297 296 299 295 293 293 295 296 297 298 298 297
319 318 318 319 318 317 317 316 316 316 316 315 314 315 314 315 315 314 313 312 313 313 312 313 312 310 302 296 311 315 315 312 311 305 300 300 301 300 298 294 296 296 292 295 296 298 297
319 318 318 318 318 318 318 317 316 316 316 315 315 315 314 314 315 314 313 312 312 312 313 313 314 309 298 310 309 305 306 304 305 304 303 303 303 299 297 298 297 293 291 287 294 297 299
319 319 319 318 318 318 318 316 316 316 315 315 315 315 314 314 314 314 313 311 312 313 315 314 307 301 297 315 312 312 308 304 304 303 303 307 303 299 298 293 289 290 286 288 293 297 297
320 319 318 318 318 317 317 316 316 315 315 313 314 313 312 312 313 313 312 311 311 312 313 313 311 300 304 306 309 310 308 307 304 302 301 300 296 294 291 290 284 287 287 289 290 294 295
319 319 318 318 318 318 316 315 315 314 315 314 313 313 312 312 313 312 307 303 304 300 303 299 301 303 308 314 310 304 307 305 305 300 293 297 292 289 292 293 293 292 290 289 293 296 293
319 318 318 318 318 317 315 314 314 314 315 314 314 314 313 313 312 311 307 299 306 307 299 305 305 306 309 313 306 303 305 298 297 291 294 292 289 294 296 295 294 292 289 289 292 295 292
318 318 317 317 317 315 314 313 313 315 314 314 313 313 312 312 312 306 302 301 308 307 297 303 306 306 307 311 306 299 301 301 295 291 291 289 293 298 296 293 293 291 289 289 290 294 293
317 317 317 316 315 314 313 313 314 314 314 313 312 312 312 312 304 303 300 307 307 305 295 299 303 307 309 305 300 303 302 301 297 292 292 291 296 295 293 293 293 288 295 295 293 289 284
317 317 316 315 315 314 313 314 314 313 313 312 312 312 312 311 300 299 308 306 305 303 286 301 304 312 306 301 301 301 303 302 296 295 294 291 293 293 292 293 296 292 296 294 293 288 285
316 316 316 315 315 314 313 313 313 312 312 312 312 311 311 305 305 304 307 307 304 293 288 298 302 300 299 301 302 302 300 303 301 295 294 294 298 296 295 298 298 299 293 290 287 285 280
315 315 315 315 314 313 313 312 312 312 312 312 312 311 308 307 302 307 306 304 291 288 303 300 296 299 299 298 299 300 298 295 291 287 286 292 292 295 299 293 298 293 286 280 279 279 279
313 314 314 314 314 313 312 311 311 311 310 310 310 308 306 307 306 307 304 297 287 297 299 306 299 298 294 297 297 298 296 293 297 294 289 287 286 295 300 296 292 291 287 281 277 277 280
313 313 314 314 313 313 312 311 310 310 310 309 307 302 303 307 308 305 301 290 293 299 304 302 300 294 295 299 296 296 293 293 298 296 290 288 291 301 301 301 299 293 288 290 285 285 282
312 313 314 314 313 313 312 311 310 310 310 308 300 301 305 312 311 308 300 295 299 305 306 302 294 297 293 296 295 294 294 299 298 299 296 294 287 296 299 299 298 294 297 287 285 279 277
311 312 313 313 313 312 311 311 310 310 308 306 301 303 309 312 309 302 297 299 303 307 304 299 295 294 294 293 294 292 294 298 300 298 298 293 289 290 294 291 289 289 287 288 287 285 278
310 311 312 313 313 312 311 310 309 309 307 303 297 298 311 310 299 300 298 304 303 301 302 300 299 297 295 295 293 293 294 297 301 299 293 294 290 285 288 293 295 291 289 288 280 281 287
308 309 311 312 312 312 311 309 309 309 307 302 294 296 309 308 294 296 303 302 302 300 299 298 297 299 297 293 290 295 297 300 302 299 295 293 286 280 281 285 291 289 291 291 288 285 283
307 309 310 311 312 312 311 309 309 308 307 304 295 295 298 302 301 296 296 297 298 301 299 298 296 297 294 291 292 291 295 299 301 300 303 297 287 283 278 281 286 285 288 290 287 282 281
309 309 309 310 311 312 311 310 309 308 308 300 297 295 296 292 294 294 295 295 297 295 297 297 294 294 292 287 288 288 292 295 298 301 293 290 283 286 287 289 290 288 288 288 285 285 282
308 309 309 310 310 312 311 309 309 308 307 300 294 293 296 295 296 295 294 294 295 295 295 294 292 293 292 288 288 287 289 289 289 294 289 289 283 286 285 290 289 287 289 289 288 289 288
307 309 309 310 311 311 310 309 309 309 305 296 299 300 296 295 295 293 293 295 296 295 297 297 295 292 291 292 293 292 292 293 292 290 288 287 285 282 280 287 286 281 286 287 288 290 289
307 310 310 311 311 310 310 307 308 309 309 302 298 298 294 291 294 294 298 297 295 295 293 295 294 291 295 297 295 292 288 291 291 290 291 286 283 281 279 281 275 285 292 295 292 295 295
306 308 309 310 309 309 309 308 309 309 310 299 300 299 295 290 295 296 296 294 295 294 293 294 295 296 296 293 286 284 284 287 290 291 289 290 286 284 278 276 283 287 294 292 288 289 296
306 307 308 308 308 309 309 309 309 309 310 299 299 301 297 292 292 297 294 294 289 288 291 295 296 296 293 288 285 280 278 284 284 289 293 291 293 287 284 279 277 285 296 299 295 284 296
305 306 306 308 308 308 309 309 309 310 310 302 299 300 297 292 296 297 292 291 292 289 288 291 292 292 291 283 281 279 281 288 280 284 284 282 284 284 284 282 284 292 297 300 282 282 294
304 305 305 306 307 307 307 308 308 309 310 303 299 301 297 293 295 298 298 293 293 289 287 290 289 289 286 281 282 281 281 284 282 286 286 283 284 284 285 283 280 298 296 289 290 293 295
304 304 304 305 306 306 306 306 307 308 309 307 296 302 301 295 292 299 299 300 298 295 290 288 288 287 288 283 281 283 282 281 281 277 289 281 285 281 283 283 293 299 297 298 297 295 294

GFSGBSN_sfc_thetae_123.txt.gz
Theta_e
322 321 321 320 319 319 318 318 318 318 318 317 316 316 316 316 316 316 316 314 314 313 312 313 313 312 307 298 299 306 320 324 317 313 302 303 303 304 300 302 299 299 301 305 302 304 304
322 322 321 320 319 319 318 318 318 317 316 316 316 315 315 315 315 316 316 315 313 313 312 312 313 311 302 293 306 315 323 318 314 307 303 304 303 304 300 298 298 300 299 301 302 302 303
321 322 321 320 319 319 319 318 317 317 316 316 315 315 314 314 315 315 315 315 314 312 312 312 314 308 301 298 309 317 318 314 313 305 301 305 306 304 301 297 301 300 297 299 299 301 301
321 321 321 320 319 319 318 318 316 316 316 315 315 315 314 314 313 314 314 315 314 312 312 313 315 307 299 310 312 311 313 312 310 308 305 305 307 305 303 302 299 296 297 295 300 300 302
320 320 320 319 318 318 318 316 315 314 315 315 315 314 314 313 314 314 314 314 313 312 312 314 309 304 299 314 310 313 311 306 305 306 307 306 304 302 302 298 295 295 292 293 297 300 300
318 319 319 318 318 317 316 315 315 315 314 314 314 314 314 313 313 314 313 312 312 314 312 311 309 300 305 306 312 311 310 306 303 303 301 301 300 298 298 296 288 292 291 293 295 298 300
318 318 318 318 318 317 315 315 314 314 314 315 314 313 313 313 313 313 310 307 304 302 304 301 302 301 306 310 312 308 307 304 304 301 295 298 295 293 297 298 297 297 295 294 296 299 298
316 316 317 316 316 316 315 315 314 313 314 314 313 313 313 313 313 312 309 301 305 304 300 304 305 305 308 309 303 306 308 302 299 293 298 296 294 299 300 299 297 296 294 294 296 298 298
315 315 315 315 315 314 315 314 313 314 313 313 312 312 312 313 312 309 305 303 309 307 299 302 304 301 302 308 305 302 306 303 298 296 297 294 297 300 298 296 296 295 294 294 294 297 298
315 314 314 314 313 314 314 314 314 313 313 312 311 311 311 312 306 305 302 308 310 308 296 298 302 304 309 310 304 306 308 304 299 296 297 297 299 298 297 295 297 293 298 297 296 295 291
312 314 313 313 313 313 313 313 313 313 312 311 311 311 311 311 305 302 307 309 309 304 286 301 302 312 310 304 303 300 307 306 299 297 297 295 296 296 295 296 298 296 299 298 296 294 293
310 311 313 312 313 313 312 312 313 312 312 310 310 311 310 307 307 308 309 310 304 293 287 297 303 301 303 302 302 300 302 307 304 299 298 298 301 300 299 299 300 300 297 295 294 294 289
308 309 311 312 312 312 312 312 312 312 311 310 310 309 307 309 304 310 309 304 294 289 303 296 297 301 301 299 298 297 297 298 297 293 292 296 297 300 301 299 301 298 296 289 287 288 287
307 308 309 311 311 312 311 312 311 311 310 309 308 307 307 308 310 310 307 300 289 297 297 304 299 300 297 299 299 296 295 294 298 299 294 291 289 298 302 299 297 298 296 290 282 284 288
308 308 307 308 310 311 311 311 310 310 309 307 307 307 307 309 310 309 302 293 293 298 302 300 300 295 296 299 298 297 295 295 299 300 294 292 292 301 301 303 302 297 294 296 291 291 290
308 309 308 309 310 311 311 311 310 310 309 307 302 304 310 312 311 309 302 294 299 305 304 303 294 297 294 296 296 297 296 300 299 301 302 298 292 299 300 302 302 300 301 294 295 286 284
307 308 309 308 308 309 310 311 310 309 308 306 302 306 311 312 310 307 298 297 301 305 305 302 298 297 297 296 297 295 296 300 302 300 302 300 297 295 299 296 296 297 296 295 296 294 288
306 307 308 309 308 309 310 311 310 308 306 305 301 300 311 312 302 304 299 301 301 302 305 303 302 300 298 298 297 297 296 299 303 303 298 299 297 292 292 296 298 297 296 297 293 290 293
306 306 307 308 309 309 310 310 309 308 307 301 299 299 312 311 299 300 301 300 303 301 300 301 299 301 300 297 295 298 298 301 302 301 300 300 294 289 289 294 296 294 296 296 296 295 292
305 306 307 309 310 309 310 309 308 308 307 304 298 298 303 307 305 301 299 299 299 302 298 299 298 300 299 296 298 296 297 300 302 302 302 302 294 292 289 288 294 291 293 295 294 289 289
305 305 307 309 311 310 310 309 307 307 307 304 301 298 298 297 297 298 301 298 296 296 299 300 298 298 298 294 294 294 297 298 300 299 298 299 292 292 291 292 292 291 291 292 291 292 288
305 306 307 309 310 310 310 309 307 308 307 303 298 296 300 298 299 297 297 296 296 295 297 296 297 295 297 296 296 294 296 297 297 298 297 296 291 292 290 291 291 290 292 292 292 292 292
305 305 307 308 309 309 309 310 309 309 307 301 303 303 298 297 297 296 296 297 298 298 298 299 298 297 296 295 298 299 299 300 301 298 295 295 294 291 287 290 289 286 290 292 292 294 293
305 306 306 306 307 308 309 309 309 309 309 303 302 301 297 294 296 295 297 297 296 297 296 297 299 298 298 301 300 300 299 298 299 297 299 295 294 292 287 288 280 290 295 295 293 295 296
305 306 305 305 305 307 308 308 309 309 309 305 304 301 297 294 296 296 296 295 297 298 296 296 297 298 302 297 293 290 291 292 293 295 296 297 294 288 286 285 288 290 295 295 294 294 300
305 305 305 305 304 305 306 307 308 308 308 306 303 303 301 294 295 297 296 295 295 295 295 296 299 300 299 294 291 284 284 288 289 291 295 295 297 292 285 282 281 291 298 301 300 289 300
304 304 304 304 304 305 305 306 306 307 308 307 304 303 301 296 300 298 295 294 295 295 294 296 297 297 297 292 289 286 286 291 289 289 288 290 291 288 286 285 289 296 298 302 287 291 300
304 305 305 305 305 305 305 305 305 306 307 307 304 304 302 297 296 299 299 297 296 296 294 295 295 295 292 289 288 288 288 291 290 292 291 289 287 286 288 284 282 299 298 293 298 301 301
304 304 304 305 305 305 305 305 305 306 306 307 302 303 304 299 298 301 302 303 302 300 296 294 294 294 293 291 290 291 289 289 289 287 294 290 294 291 292 292 298 302 301 303 304 301 302